Wetterdaten: Samstag, 27.06.2015
Datum Zeit Temp. Aussen +5cm Feuchte Auss BlattFeu 1 Luftdruck Regen Sonnenschein Regendauer Solar Windben
27.06.2015 00:00 22,6 C 19,4 C 69 % 0 lf 1014,8 hPa 0,0 l/m 0 min 0 min 0 W/m 12,6 km/h (3 Bft)
27.06.2015 00:02 22,5 C 19,4 C 69 % 0 lf 1014,9 hPa 0,0 l/m 0 min 0 min 0 W/m 10,5 km/h (2 Bft)
27.06.2015 00:05 22,4 C 19,4 C 70 % 0 lf 1014,8 hPa 0,0 l/m 0 min 2 min 0 W/m 12,6 km/h (3 Bft)
27.06.2015 00:07 22,4 C 19,4 C 70 % 0 lf 1014,7 hPa 0,0 l/m 0 min 0 min 0 W/m 12,6 km/h (3 Bft)
27.06.2015 00:09 22,4 C 19,4 C 69 % 0 lf 1014,6 hPa 0,0 l/m 0 min 0 min 0 W/m 12,6 km/h (3 Bft)
27.06.2015 00:10 22,4 C 19,4 C 69 % 0 lf 1014,6 hPa 0,0 l/m 0 min 0 min 0 W/m 12,6 km/h (3 Bft)
27.06.2015 00:12 22,4 C 19,4 C 69 % 0 lf 1014,6 hPa 0,0 l/m 0 min 2 min 0 W/m 8,4 km/h (2 Bft)
27.06.2015 00:14 22,3 C 19,4 C 69 % 0 lf 1014,6 hPa 0,0 l/m 0 min 0 min 0 W/m 10,5 km/h (2 Bft)
27.06.2015 00:16 22,3 C 19,4 C 69 % 0 lf 1014,6 hPa 0,0 l/m 0 min 2 min 0 W/m 8,4 km/h (2 Bft)
27.06.2015 00:18 22,3 C 19,4 C 70 % 0 lf 1014,6 hPa 0,0 l/m 0 min 2 min 0 W/m 10,5 km/h (2 Bft)
27.06.2015 00:20 22,3 C 19,4 C 70 % 0 lf 1014,6 hPa 0,0 l/m 0 min 0 min 0 W/m 10,5 km/h (2 Bft)
27.06.2015 00:22 22,3 C 19,4 C 70 % 0 lf 1014,6 hPa 0,0 l/m 0 min 0 min 0 W/m 10,5 km/h (2 Bft)
27.06.2015 00:24 22,2 C 19,4 C 70 % 0 lf 1014,6 hPa 0,0 l/m 0 min 0 min 0 W/m 8,4 km/h (2 Bft)
27.06.2015 00:26 22,2 C 19,4 C 70 % 0 lf 1014,6 hPa 0,0 l/m 0 min 0 min 0 W/m 12,6 km/h (3 Bft)
27.06.2015 00:28 22,2 C 19,4 C 69 % 0 lf 1014,6 hPa 0,0 l/m 0 min 0 min 0 W/m 10,5 km/h (2 Bft)
27.06.2015 00:30 22,2 C 20,0 C 69 % 0 lf 1014,5 hPa 0,0 l/m 0 min 0 min 0 W/m 14,6 km/h (3 Bft)
27.06.2015 00:32 22,2 C 20,0 C 69 % 0 lf 1014,6 hPa 0,0 l/m 0 min 0 min 0 W/m 12,6 km/h (3 Bft)
27.06.2015 00:34 22,2 C 19,4 C 69 % 0 lf 1014,6 hPa 0,0 l/m 0 min 0 min 0 W/m 10,5 km/h (2 Bft)
27.06.2015 00:36 22,2 C 19,4 C 69 % 0 lf 1014,6 hPa 0,0 l/m 0 min 0 min 0 W/m 12,6 km/h (3 Bft)
27.06.2015 00:38 22,1 C 19,4 C 70 % 0 lf 1014,6 hPa 0,0 l/m 0 min 0 min 0 W/m 12,6 km/h (3 Bft)
27.06.2015 00:40 22,1 C 20,0 C 69 % 0 lf 1014,6 hPa 0,0 l/m 0 min 0 min 0 W/m 8,4 km/h (2 Bft)
27.06.2015 00:42 22,1 C 19,4 C 69 % 0 lf 1014,6 hPa 0,0 l/m 0 min 0 min 0 W/m 10,5 km/h (2 Bft)
27.06.2015 00:44 22,1 C 19,4 C 69 % 0 lf 1014,5 hPa 0,0 l/m 0 min 0 min 0 W/m 8,4 km/h (2 Bft)
27.06.2015 00:46 22,1 C 19,4 C 69 % 0 lf 1014,6 hPa 0,0 l/m 0 min 0 min 0 W/m 8,4 km/h (2 Bft)
27.06.2015 00:48 22,1 C 19,4 C 69 % 0 lf 1014,5 hPa 0,0 l/m 0 min 0 min 0 W/m 12,6 km/h (3 Bft)
27.06.2015 00:50 22,1 C 19,4 C 69 % 0 lf 1014,5 hPa 0,0 l/m 0 min 0 min 0 W/m 10,5 km/h (2 Bft)
27.06.2015 00:52 22,0 C 19,4 C 69 % 0 lf 1014,6 hPa 0,0 l/m 0 min 2 min 0 W/m 6,3 km/h (2 Bft)
27.06.2015 00:54 22,0 C 19,4 C 69 % 0 lf 1014,6 hPa 0,0 l/m 0 min 0 min 0 W/m 6,3 km/h (2 Bft)
27.06.2015 00:56 22,0 C 19,4 C 70 % 0 lf 1014,5 hPa 0,0 l/m 0 min 0 min 0 W/m 6,3 km/h (2 Bft)
27.06.2015 00:58 22,0 C 19,4 C 70 % 0 lf 1014,4 hPa 0,0 l/m 0 min 0 min 0 W/m 6,3 km/h (2 Bft)
27.06.2015 01:00 22,0 C 19,4 C 70 % 0 lf 1014,3 hPa 0,0 l/m 0 min 2 min 0 W/m 6,3 km/h (2 Bft)
27.06.2015 01:02 22,0 C 19,4 C 70 % 0 lf 1014,3 hPa 0,0 l/m 0 min 0 min 0 W/m 8,4 km/h (2 Bft)
27.06.2015 01:04 22,0 C 19,4 C 70 % 0 lf 1014,3 hPa 0,0 l/m 0 min 0 min 0 W/m 6,3 km/h (2 Bft)
27.06.2015 01:06 22,0 C 19,4 C 70 % 0 lf 1014,2 hPa 0,0 l/m 0 min 0 min 0 W/m 6,3 km/h (2 Bft)
27.06.2015 01:08 21,9 C 19,4 C 70 % 0 lf 1014,2 hPa 0,0 l/m 0 min 0 min 0 W/m 6,3 km/h (2 Bft)
27.06.2015 01:10 21,9 C 19,4 C 70 % 0 lf 1014,1 hPa 0,0 l/m 0 min 0 min 0 W/m 6,3 km/h (2 Bft)
27.06.2015 01:12 21,9 C 18,9 C 70 % 0 lf 1014,2 hPa 0,0 l/m 0 min 0 min 0 W/m 6,3 km/h (2 Bft)
27.06.2015 01:14 21,9 C 18,9 C 70 % 0 lf 1014,3 hPa 0,0 l/m 0 min 0 min 0 W/m 4,2 km/h (1 Bft)
27.06.2015 01:16 21,9 C 18,9 C 71 % 0 lf 1014,5 hPa 0,0 l/m 0 min 0 min 0 W/m 8,4 km/h (2 Bft)
27.06.2015 01:18 21,9 C 18,9 C 70 % 0 lf 1014,5 hPa 0,0 l/m 0 min 0 min 0 W/m 6,3 km/h (2 Bft)
27.06.2015 01:20 21,8 C 18,9 C 71 % 2 lf 1014,6 hPa 0,0 l/m 0 min 0 min 0 W/m 8,4 km/h (2 Bft)
27.06.2015 01:22 21,8 C 18,3 C 71 % 8 lf 1014,6 hPa 0,0 l/m 0 min 2 min 0 W/m 10,5 km/h (2 Bft)
27.06.2015 01:24 21,8 C 17,8 C 71 % 5 lf 1014,6 hPa 0,0 l/m 0 min 2 min 0 W/m 10,5 km/h (2 Bft)
27.06.2015 01:26 21,8 C 17,8 C 72 % 1 lf 1014,7 hPa 0,0 l/m 0 min 2 min 0 W/m 8,4 km/h (2 Bft)
27.06.2015 01:28 21,8 C 17,2 C 72 % 4 lf 1014,7 hPa 0,0 l/m 0 min 2 min 0 W/m 12,6 km/h (3 Bft)
27.06.2015 01:30 21,7 C 17,2 C 72 % 2 lf 1014,6 hPa 0,0 l/m 0 min 2 min 0 W/m 20,9 km/h (4 Bft)
27.06.2015 01:32 21,7 C 17,2 C 73 % 4 lf 1014,5 hPa 0,0 l/m 0 min 2 min 0 W/m 25,1 km/h (4 Bft)
27.06.2015 01:34 21,6 C 17,2 C 74 % 12 lf 1014,6 hPa 0,0 l/m 0 min 2 min 0 W/m 18,8 km/h (3 Bft)
27.06.2015 01:36 21,5 C 17,2 C 74 % 12 lf 1014,6 hPa 0,0 l/m 0 min 2 min 0 W/m 18,8 km/h (3 Bft)
27.06.2015 01:38 21,4 C 16,7 C 74 % 3 lf 1014,6 hPa 0,0 l/m 0 min 2 min 0 W/m 23,0 km/h (4 Bft)
27.06.2015 01:40 21,4 C 16,7 C 75 % 2 lf 1014,5 hPa 0,0 l/m 0 min 2 min 0 W/m 23,0 km/h (4 Bft)
27.06.2015 01:42 21,3 C 16,7 C 75 % 1 lf 1014,5 hPa 0,0 l/m 0 min 2 min 0 W/m 18,8 km/h (3 Bft)
27.06.2015 01:44 21,2 C 16,7 C 75 % 0 lf 1014,2 hPa 0,0 l/m 0 min 0 min 0 W/m 18,8 km/h (3 Bft)
27.06.2015 01:46 21,2 C 16,7 C 76 % 0 lf 1014,1 hPa 0,0 l/m 0 min 2 min 0 W/m 16,7 km/h (3 Bft)
27.06.2015 01:48 21,2 C 17,2 C 76 % 0 lf 1014,1 hPa 0,0 l/m 0 min 2 min 0 W/m 14,6 km/h (3 Bft)
27.06.2015 01:50 21,1 C 16,7 C 76 % 5 lf 1014,0 hPa 0,0 l/m 0 min 2 min 0 W/m 16,7 km/h (3 Bft)
27.06.2015 01:52 21,1 C 16,7 C 76 % 0 lf 1014,0 hPa 0,0 l/m 0 min 2 min 0 W/m 16,7 km/h (3 Bft)
27.06.2015 01:54 21,0 C 17,2 C 76 % 0 lf 1014,0 hPa 0,0 l/m 0 min 2 min 0 W/m 14,6 km/h (3 Bft)
27.06.2015 01:56 21,0 C 17,2 C 76 % 0 lf 1014,0 hPa 0,0 l/m 0 min 2 min 0 W/m 16,7 km/h (3 Bft)
27.06.2015 01:58 21,0 C 17,2 C 76 % 1 lf 1014,0 hPa 0,0 l/m 0 min 2 min 0 W/m 14,6 km/h (3 Bft)
27.06.2015 02:00 20,9 C 17,2 C 77 % 0 lf 1014,1 hPa 0,0 l/m 0 min 0 min 0 W/m 14,6 km/h (3 Bft)
27.06.2015 02:02 20,9 C 17,2 C 76 % 15 lf 1014,0 hPa 0,0 l/m 0 min 2 min 0 W/m 20,9 km/h (4 Bft)
27.06.2015 02:04 20,9 C 17,2 C 77 % 15 lf 1014,0 hPa 0,2 l/m 0 min 2 min 0 W/m 12,6 km/h (3 Bft)
27.06.2015 02:06 20,8 C 17,2 C 77 % 14 lf 1014,0 hPa 0,0 l/m 0 min 2 min 0 W/m 14,6 km/h (3 Bft)
27.06.2015 02:08 20,8 C 17,2 C 77 % 14 lf 1014,0 hPa 0,0 l/m 0 min 2 min 0 W/m 16,7 km/h (3 Bft)
27.06.2015 02:10 20,8 C 17,2 C 77 % 13 lf 1014,0 hPa 0,0 l/m 0 min 2 min 0 W/m 14,6 km/h (3 Bft)
27.06.2015 02:12 20,8 C 17,2 C 77 % 7 lf 1013,9 hPa 0,0 l/m 0 min 0 min 0 W/m 14,6 km/h (3 Bft)
27.06.2015 02:14 20,7 C 17,2 C 78 % 3 lf 1013,9 hPa 0,0 l/m 0 min 2 min 0 W/m 12,6 km/h (3 Bft)
27.06.2015 02:16 20,7 C 17,2 C 78 % 5 lf 1013,9 hPa 0,0 l/m 0 min 2 min 0 W/m 10,5 km/h (2 Bft)
27.06.2015 02:18 20,7 C 17,2 C 78 % 9 lf 1013,9 hPa 0,0 l/m 0 min 2 min 0 W/m 10,5 km/h (2 Bft)
27.06.2015 02:20 20,7 C 17,2 C 78 % 13 lf 1014,0 hPa 0,0 l/m 0 min 2 min 0 W/m 10,5 km/h (2 Bft)
27.06.2015 02:22 20,7 C 16,7 C 78 % 10 lf 1014,0 hPa 0,0 l/m 0 min 2 min 0 W/m 14,6 km/h (3 Bft)
27.06.2015 02:24 20,6 C 16,7 C 78 % 14 lf 1013,9 hPa 0,0 l/m 0 min 2 min 0 W/m 8,4 km/h (2 Bft)
27.06.2015 02:26 20,6 C 16,7 C 78 % 12 lf 1013,9 hPa 0,0 l/m 0 min 2 min 0 W/m 6,3 km/h (2 Bft)
27.06.2015 02:28 20,6 C 16,7 C 79 % 7 lf 1013,9 hPa 0,0 l/m 0 min 2 min 0 W/m 6,3 km/h (2 Bft)
27.06.2015 02:30 20,6 C 16,7 C 79 % 9 lf 1013,9 hPa 0,0 l/m 0 min 2 min 0 W/m 6,3 km/h (2 Bft)
27.06.2015 02:32 20,5 C 16,7 C 79 % 4 lf 1013,9 hPa 0,0 l/m 0 min 0 min 0 W/m 2,1 km/h (1 Bft)
27.06.2015 02:34 20,5 C 16,7 C 79 % 2 lf 1013,8 hPa 0,0 l/m 0 min 0 min 0 W/m 4,2 km/h (1 Bft)
27.06.2015 02:36 20,5 C 16,7 C 80 % 0 lf 1013,8 hPa 0,0 l/m 0 min 0 min 0 W/m 6,3 km/h (2 Bft)
27.06.2015 02:38 20,5 C 16,7 C 80 % 0 lf 1013,8 hPa 0,0 l/m 0 min 0 min 0 W/m 6,3 km/h (2 Bft)
27.06.2015 02:40 20,4 C 16,7 C 80 % 0 lf 1013,7 hPa 0,0 l/m 0 min 0 min 0 W/m 6,3 km/h (2 Bft)
27.06.2015 02:42 20,4 C 16,7 C 80 % 0 lf 1013,7 hPa 0,0 l/m 0 min 0 min 0 W/m 4,2 km/h (1 Bft)
27.06.2015 02:44 20,4 C 16,7 C 80 % 0 lf 1013,8 hPa 0,0 l/m 0 min 0 min 0 W/m 4,2 km/h (1 Bft)
27.06.2015 02:46 20,4 C 16,7 C 80 % 0 lf 1013,9 hPa 0,0 l/m 0 min 0 min 0 W/m 2,1 km/h (1 Bft)
27.06.2015 02:48 20,3 C 16,7 C 80 % 0 lf 1013,9 hPa 0,0 l/m 0 min 0 min 0 W/m 4,2 km/h (1 Bft)
27.06.2015 02:50 20,3 C 16,7 C 80 % 0 lf 1013,8 hPa 0,0 l/m 0 min 0 min 0 W/m 6,3 km/h (2 Bft)
27.06.2015 02:52 20,3 C 17,2 C 80 % 0 lf 1013,8 hPa 0,0 l/m 0 min 0 min 0 W/m 2,1 km/h (1 Bft)
27.06.2015 02:54 20,3 C 17,2 C 80 % 0 lf 1013,9 hPa 0,0 l/m 0 min 0 min 0 W/m 6,3 km/h (2 Bft)
27.06.2015 02:56 20,2 C 17,2 C 80 % 0 lf 1014,0 hPa 0,0 l/m 0 min 0 min 0 W/m 4,2 km/h (1 Bft)
27.06.2015 02:58 20,2 C 17,2 C 81 % 0 lf 1014,1 hPa 0,0 l/m 0 min 0 min 0 W/m 6,3 km/h (2 Bft)
27.06.2015 03:00 20,2 C 17,2 C 81 % 12 lf 1014,0 hPa 0,0 l/m 0 min 2 min 0 W/m 6,3 km/h (2 Bft)
27.06.2015 03:02 20,2 C 16,7 C 82 % 14 lf 1013,4 hPa 0,4 l/m 0 min 2 min 0 W/m 8,4 km/h (2 Bft)
27.06.2015 03:04 20,2 C 16,7 C 83 % 15 lf 1013,5 hPa 0,0 l/m 0 min 2 min 0 W/m 8,4 km/h (2 Bft)
27.06.2015 03:06 20,1 C 16,7 C 84 % 15 lf 1013,6 hPa 0,0 l/m 0 min 2 min 0 W/m 6,3 km/h (2 Bft)
27.06.2015 03:08 20,1 C 16,7 C 84 % 15 lf 1013,6 hPa 0,0 l/m 0 min 2 min 0 W/m 8,4 km/h (2 Bft)
27.06.2015 03:10 20,1 C 16,7 C 84 % 15 lf 1013,9 hPa 0,0 l/m 0 min 2 min 0 W/m 8,4 km/h (2 Bft)
27.06.2015 03:12 20,0 C 16,7 C 84 % 15 lf 1014,1 hPa 0,2 l/m 0 min 2 min 0 W/m 10,5 km/h (2 Bft)
27.06.2015 03:14 19,9 C 16,7 C 85 % 15 lf 1014,1 hPa 0,8 l/m 0 min 2 min 0 W/m 10,5 km/h (2 Bft)
27.06.2015 03:16 19,9 C 16,7 C 85 % 15 lf 1014,1 hPa 0,6 l/m 0 min 2 min 0 W/m 10,5 km/h (2 Bft)
27.06.2015 03:18 19,8 C 16,7 C 86 % 15 lf 1014,1 hPa 0,2 l/m 0 min 2 min 0 W/m 10,5 km/h (2 Bft)
27.06.2015 03:20 19,8 C 16,7 C 86 % 15 lf 1014,1 hPa 0,2 l/m 0 min 2 min 0 W/m 12,6 km/h (3 Bft)
27.06.2015 03:22 19,7 C 16,7 C 87 % 15 lf 1014,1 hPa 0,0 l/m 0 min 2 min 0 W/m 12,6 km/h (3 Bft)
27.06.2015 03:24 19,7 C 16,1 C 87 % 15 lf 1013,9 hPa 0,0 l/m 0 min 2 min 0 W/m 20,9 km/h (4 Bft)
27.06.2015 03:26 19,6 C 16,1 C 87 % 15 lf 1013,6 hPa 0,4 l/m 0 min 2 min 0 W/m 16,7 km/h (3 Bft)
27.06.2015 03:28 19,4 C 16,1 C 88 % 15 lf 1013,6 hPa 0,0 l/m 0 min 2 min 0 W/m 10,5 km/h (2 Bft)
27.06.2015 03:30 19,3 C 16,1 C 88 % 15 lf 1013,7 hPa 0,0 l/m 0 min 2 min 0 W/m 14,6 km/h (3 Bft)
27.06.2015 03:32 19,3 C 16,1 C 88 % 15 lf 1013,7 hPa 0,0 l/m 0 min 0 min 0 W/m 12,6 km/h (3 Bft)
27.06.2015 03:34 19,2 C 16,1 C 89 % 15 lf 1013,7 hPa 0,0 l/m 0 min 0 min 0 W/m 14,6 km/h (3 Bft)
27.06.2015 03:36 19,1 C 16,1 C 89 % 15 lf 1013,6 hPa 0,0 l/m 0 min 0 min 0 W/m 12,6 km/h (3 Bft)
27.06.2015 03:38 19,1 C 16,1 C 89 % 15 lf 1013,7 hPa 0,0 l/m 0 min 0 min 0 W/m 12,6 km/h (3 Bft)
27.06.2015 03:40 19,0 C 16,1 C 89 % 15 lf 1013,7 hPa 0,0 l/m 0 min 0 min 0 W/m 10,5 km/h (2 Bft)
27.06.2015 03:42 18,9 C 16,1 C 89 % 15 lf 1013,9 hPa 0,0 l/m 0 min 0 min 0 W/m 10,5 km/h (2 Bft)
27.06.2015 03:44 18,9 C 16,1 C 90 % 15 lf 1014,0 hPa 0,0 l/m 0 min 0 min 0 W/m 10,5 km/h (2 Bft)
27.06.2015 03:46 18,8 C 16,1 C 90 % 15 lf 1013,9 hPa 0,0 l/m 0 min 0 min 0 W/m 10,5 km/h (2 Bft)
27.06.2015 03:48 18,7 C 16,1 C 90 % 15 lf 1013,8 hPa 0,0 l/m 0 min 0 min 0 W/m 8,4 km/h (2 Bft)
27.06.2015 03:50 18,7 C 16,1 C 90 % 15 lf 1013,8 hPa 0,0 l/m 0 min 0 min 0 W/m 8,4 km/h (2 Bft)
27.06.2015 03:52 18,7 C 16,1 C 90 % 15 lf 1013,8 hPa 0,0 l/m 0 min 0 min 0 W/m 6,3 km/h (2 Bft)
27.06.2015 03:54 18,6 C 16,1 C 91 % 15 lf 1013,9 hPa 0,0 l/m 0 min 0 min 0 W/m 8,4 km/h (2 Bft)
27.06.2015 03:56 18,6 C 16,1 C 91 % 15 lf 1013,9 hPa 0,0 l/m 0 min 0 min 0 W/m 6,3 km/h (2 Bft)
27.06.2015 03:58 18,5 C 16,1 C 91 % 15 lf 1013,8 hPa 0,0 l/m 0 min 0 min 0 W/m 6,3 km/h (2 Bft)
27.06.2015 04:00 18,4 C 16,1 C 91 % 15 lf 1013,9 hPa 0,0 l/m 0 min 0 min 0 W/m 4,2 km/h (1 Bft)
27.06.2015 04:02 18,4 C 16,1 C 91 % 15 lf 1013,9 hPa 0,0 l/m 0 min 0 min 0 W/m 4,2 km/h (1 Bft)
27.06.2015 04:04 18,4 C 16,1 C 91 % 15 lf 1013,9 hPa 0,0 l/m 0 min 0 min 0 W/m 4,2 km/h (1 Bft)
27.06.2015 04:06 18,4 C 16,1 C 91 % 15 lf 1013,9 hPa 0,0 l/m 0 min 0 min 0 W/m 4,2 km/h (1 Bft)
27.06.2015 04:08 18,3 C 16,1 C 91 % 15 lf 1014,0 hPa 0,0 l/m 0 min 0 min 0 W/m 6,3 km/h (2 Bft)
27.06.2015 04:10 18,3 C 16,1 C 92 % 15 lf 1013,9 hPa 0,0 l/m 0 min 0 min 0 W/m 6,3 km/h (2 Bft)
27.06.2015 04:12 18,3 C 16,1 C 92 % 15 lf 1013,8 hPa 0,0 l/m 0 min 0 min 0 W/m 4,2 km/h (1 Bft)
27.06.2015 04:14 18,3 C 16,1 C 92 % 15 lf 1014,0 hPa 0,0 l/m 0 min 0 min 0 W/m 4,2 km/h (1 Bft)
27.06.2015 04:16 18,3 C 16,1 C 92 % 15 lf 1014,0 hPa 0,0 l/m 0 min 0 min 0 W/m 6,3 km/h (2 Bft)
27.06.2015 04:18 18,2 C 16,1 C 92 % 15 lf 1014,0 hPa 0,0 l/m 0 min 0 min 0 W/m 4,2 km/h (1 Bft)
27.06.2015 04:20 18,2 C 16,1 C 92 % 15 lf 1013,9 hPa 0,0 l/m 0 min 0 min 0 W/m 2,1 km/h (1 Bft)
27.06.2015 04:22 18,2 C 16,1 C 92 % 15 lf 1014,0 hPa 0,0 l/m 0 min 2 min 0 W/m 2,1 km/h (1 Bft)
27.06.2015 04:24 18,2 C 16,1 C 92 % 15 lf 1013,9 hPa 0,0 l/m 0 min 0 min 0 W/m 2,1 km/h (1 Bft)
27.06.2015 04:26 18,2 C 16,1 C 92 % 15 lf 1013,9 hPa 0,0 l/m 0 min 0 min 0 W/m 2,1 km/h (1 Bft)
27.06.2015 04:28 18,2 C 16,1 C 92 % 15 lf 1013,8 hPa 0,0 l/m 0 min 0 min 0 W/m 2,1 km/h (1 Bft)
27.06.2015 04:30 18,2 C 16,1 C 92 % 15 lf 1013,8 hPa 0,0 l/m 0 min 0 min 0 W/m 2,1 km/h (1 Bft)
27.06.2015 04:32 18,1 C 16,1 C 92 % 15 lf 1013,7 hPa 0,0 l/m 0 min 0 min 0 W/m 2,1 km/h (1 Bft)
27.06.2015 04:34 18,1 C 16,1 C 92 % 15 lf 1013,7 hPa 0,0 l/m 0 min 0 min 0 W/m 2,1 km/h (1 Bft)
27.06.2015 04:36 18,1 C 16,1 C 92 % 15 lf 1013,7 hPa 0,0 l/m 0 min 0 min 0 W/m 4,2 km/h (1 Bft)
27.06.2015 04:38 18,1 C 16,1 C 93 % 15 lf 1013,7 hPa 0,0 l/m 0 min 0 min 0 W/m 4,2 km/h (1 Bft)
27.06.2015 04:40 18,2 C 16,1 C 93 % 15 lf 1013,6 hPa 0,0 l/m 0 min 0 min 0 W/m 4,2 km/h (1 Bft)
27.06.2015 04:42 18,1 C 16,1 C 93 % 15 lf 1013,6 hPa 0,0 l/m 0 min 0 min 0 W/m 6,3 km/h (2 Bft)
27.06.2015 04:44 18,1 C 16,1 C 93 % 15 lf 1013,6 hPa 0,0 l/m 0 min 0 min 0 W/m 6,3 km/h (2 Bft)
27.06.2015 04:46 18,1 C 16,1 C 93 % 15 lf 1013,6 hPa 0,0 l/m 0 min 0 min 0 W/m 6,3 km/h (2 Bft)
27.06.2015 04:48 18,1 C 16,1 C 93 % 15 lf 1013,7 hPa 0,0 l/m 0 min 0 min 0 W/m 6,3 km/h (2 Bft)
27.06.2015 04:50 18,1 C 16,1 C 93 % 15 lf 1013,6 hPa 0,0 l/m 0 min 0 min 0 W/m 6,3 km/h (2 Bft)
27.06.2015 04:52 18,1 C 16,1 C 93 % 15 lf 1013,6 hPa 0,0 l/m 0 min 0 min 0 W/m 6,3 km/h (2 Bft)
27.06.2015 04:54 18,1 C 16,1 C 93 % 15 lf 1013,6 hPa 0,0 l/m 0 min 0 min 0 W/m 8,4 km/h (2 Bft)
27.06.2015 04:56 18,1 C 16,1 C 93 % 15 lf 1013,5 hPa 0,0 l/m 0 min 0 min 0 W/m 6,3 km/h (2 Bft)
27.06.2015 04:58 18,1 C 16,1 C 93 % 15 lf 1013,4 hPa 0,0 l/m 0 min 0 min 0 W/m 10,5 km/h (2 Bft)
27.06.2015 05:00 18,1 C 16,1 C 94 % 15 lf 1013,4 hPa 0,0 l/m 0 min 0 min 0 W/m 8,4 km/h (2 Bft)
27.06.2015 05:02 18,1 C 16,1 C 94 % 15 lf 1013,6 hPa 0,0 l/m 0 min 0 min 0 W/m 8,4 km/h (2 Bft)
27.06.2015 05:04 18,0 C 16,1 C 94 % 15 lf 1013,5 hPa 0,0 l/m 0 min 2 min 0 W/m 10,5 km/h (2 Bft)
27.06.2015 05:06 18,0 C 16,1 C 94 % 15 lf 1013,4 hPa 0,0 l/m 0 min 2 min 0 W/m 8,4 km/h (2 Bft)
27.06.2015 05:08 18,0 C 16,1 C 94 % 15 lf 1013,5 hPa 0,0 l/m 0 min 0 min 0 W/m 8,4 km/h (2 Bft)
27.06.2015 05:10 17,9 C 16,1 C 94 % 15 lf 1013,4 hPa 0,0 l/m 0 min 0 min 0 W/m 8,4 km/h (2 Bft)
27.06.2015 05:12 17,9 C 16,1 C 94 % 15 lf 1013,4 hPa 0,0 l/m 0 min 0 min 0 W/m 6,3 km/h (2 Bft)
27.06.2015 05:14 17,9 C 16,1 C 94 % 15 lf 1013,3 hPa 0,0 l/m 0 min 0 min 0 W/m 6,3 km/h (2 Bft)
27.06.2015 05:16 17,9 C 16,1 C 94 % 15 lf 1013,4 hPa 0,0 l/m 0 min 0 min 0 W/m 10,5 km/h (2 Bft)
27.06.2015 05:18 17,9 C 16,1 C 94 % 15 lf 1013,6 hPa 0,0 l/m 0 min 0 min 0 W/m 6,3 km/h (2 Bft)
27.06.2015 05:20 17,9 C 16,1 C 94 % 15 lf 1013,4 hPa 0,0 l/m 0 min 0 min 0 W/m 6,3 km/h (2 Bft)
27.06.2015 05:22 17,9 C 16,1 C 94 % 15 lf 1013,4 hPa 0,0 l/m 0 min 0 min 3 W/m 6,3 km/h (2 Bft)
27.06.2015 05:24 17,8 C 16,1 C 94 % 15 lf 1013,4 hPa 0,0 l/m 0 min 0 min 5 W/m 6,3 km/h (2 Bft)
27.06.2015 05:26 17,8 C 16,1 C 94 % 15 lf 1013,5 hPa 0,0 l/m 0 min 0 min 5 W/m 6,3 km/h (2 Bft)
27.06.2015 05:28 17,8 C 16,1 C 94 % 15 lf 1013,5 hPa 0,0 l/m 0 min 0 min 5 W/m 6,3 km/h (2 Bft)
27.06.2015 05:30 17,8 C 16,1 C 94 % 15 lf 1013,6 hPa 0,0 l/m 0 min 0 min 5 W/m 4,2 km/h (1 Bft)
27.06.2015 05:32 17,8 C 16,1 C 94 % 15 lf 1013,6 hPa 0,0 l/m 0 min 0 min 5 W/m 6,3 km/h (2 Bft)
27.06.2015 05:34 17,8 C 16,1 C 94 % 15 lf 1013,6 hPa 0,0 l/m 0 min 0 min 5 W/m 6,3 km/h (2 Bft)
27.06.2015 05:36 17,8 C 16,1 C 95 % 15 lf 1013,6 hPa 0,0 l/m 0 min 0 min 7 W/m 6,3 km/h (2 Bft)
27.06.2015 05:38 17,7 C 16,1 C 95 % 15 lf 1013,6 hPa 0,0 l/m 0 min 0 min 8 W/m 6,3 km/h (2 Bft)
27.06.2015 05:40 17,7 C 16,1 C 95 % 15 lf 1013,6 hPa 0,0 l/m 0 min 0 min 9 W/m 6,3 km/h (2 Bft)
27.06.2015 05:42 17,7 C 16,1 C 95 % 15 lf 1013,7 hPa 0,0 l/m 0 min 0 min 9 W/m 6,3 km/h (2 Bft)
27.06.2015 05:44 17,7 C 16,1 C 95 % 15 lf 1013,8 hPa 0,0 l/m 0 min 0 min 9 W/m 6,3 km/h (2 Bft)
27.06.2015 05:46 17,7 C 16,1 C 95 % 15 lf 1013,8 hPa 0,0 l/m 0 min 0 min 9 W/m 8,4 km/h (2 Bft)
27.06.2015 05:48 17,7 C 16,1 C 95 % 15 lf 1013,9 hPa 0,0 l/m 0 min 0 min 9 W/m 8,4 km/h (2 Bft)
27.06.2015 05:50 17,7 C 16,1 C 95 % 15 lf 1013,9 hPa 0,0 l/m 0 min 0 min 9 W/m 6,3 km/h (2 Bft)
27.06.2015 05:52 17,7 C 16,1 C 95 % 15 lf 1014,0 hPa 0,0 l/m 0 min 0 min 7 W/m 6,3 km/h (2 Bft)
27.06.2015 05:54 17,7 C 16,1 C 95 % 15 lf 1014,0 hPa 0,0 l/m 0 min 0 min 8 W/m 8,4 km/h (2 Bft)
27.06.2015 05:56 17,7 C 16,1 C 95 % 15 lf 1014,0 hPa 0,0 l/m 0 min 0 min 9 W/m 8,4 km/h (2 Bft)
27.06.2015 05:58 17,7 C 16,1 C 95 % 15 lf 1014,1 hPa 0,0 l/m 0 min 0 min 7 W/m 10,5 km/h (2 Bft)
27.06.2015 06:00 17,7 C 16,1 C 95 % 15 lf 1014,1 hPa 0,0 l/m 0 min 0 min 5 W/m 12,6 km/h (3 Bft)
27.06.2015 06:02 17,7 C 16,1 C 95 % 15 lf 1014,1 hPa 0,0 l/m 0 min 0 min 5 W/m 8,4 km/h (2 Bft)
27.06.2015 06:05 17,7 C 16,1 C 95 % 15 lf 1014,1 hPa 0,0 l/m 0 min 2 min 5 W/m 8,4 km/h (2 Bft)
27.06.2015 06:08 17,6 C 15,6 C 95 % 15 lf 1013,7 hPa 0,8 l/m 0 min 2 min 7 W/m 12,6 km/h (3 Bft)
27.06.2015 06:12 17,5 C 15,6 C 95 % 15 lf 1013,8 hPa 0,8 l/m 0 min 0 min 7 W/m 12,6 km/h (3 Bft)
27.06.2015 06:14 17,5 C 15,6 C 95 % 15 lf 1013,9 hPa 0,0 l/m 0 min 2 min 12 W/m 6,3 km/h (2 Bft)
27.06.2015 06:16 17,4 C 15,6 C 95 % 15 lf 1013,9 hPa 0,0 l/m 0 min 0 min 13 W/m 8,4 km/h (2 Bft)
27.06.2015 06:18 17,4 C 15,6 C 95 % 15 lf 1013,9 hPa 0,0 l/m 0 min 0 min 16 W/m 6,3 km/h (2 Bft)
27.06.2015 06:20 17,4 C 15,6 C 95 % 15 lf 1014,1 hPa 0,0 l/m 0 min 0 min 18 W/m 6,3 km/h (2 Bft)
27.06.2015 06:22 17,3 C 15,6 C 95 % 15 lf 1014,1 hPa 0,0 l/m 0 min 0 min 21 W/m 8,4 km/h (2 Bft)
27.06.2015 06:24 17,3 C 15,6 C 95 % 15 lf 1014,1 hPa 0,0 l/m 0 min 2 min 23 W/m 6,3 km/h (2 Bft)
27.06.2015 06:26 17,3 C 15,6 C 95 % 15 lf 1014,1 hPa 0,0 l/m 0 min 2 min 23 W/m 8,4 km/h (2 Bft)
27.06.2015 06:28 17,3 C 15,6 C 95 % 15 lf 1014,2 hPa 0,0 l/m 0 min 0 min 25 W/m 10,5 km/h (2 Bft)
27.06.2015 06:30 17,2 C 15,6 C 95 % 15 lf 1014,1 hPa 0,0 l/m 0 min 0 min 26 W/m 12,6 km/h (3 Bft)
27.06.2015 06:32 17,2 C 15,6 C 95 % 15 lf 1014,1 hPa 0,0 l/m 0 min 0 min 26 W/m 10,5 km/h (2 Bft)
27.06.2015 06:34 17,2 C 15,6 C 95 % 15 lf 1014,1 hPa 0,0 l/m 0 min 0 min 29 W/m 14,6 km/h (3 Bft)
27.06.2015 06:36 17,2 C 15,6 C 95 % 15 lf 1014,1 hPa 0,0 l/m 0 min 0 min 29 W/m 16,7 km/h (3 Bft)
27.06.2015 06:38 17,1 C 15,6 C 95 % 15 lf 1014,1 hPa 0,0 l/m 0 min 0 min 26 W/m 12,6 km/h (3 Bft)
27.06.2015 06:40 17,1 C 15,0 C 95 % 15 lf 1014,1 hPa 0,0 l/m 0 min 0 min 28 W/m 10,5 km/h (2 Bft)
27.06.2015 06:42 17,1 C 15,0 C 95 % 15 lf 1014,1 hPa 0,0 l/m 0 min 0 min 26 W/m 10,5 km/h (2 Bft)
27.06.2015 06:44 17,0 C 15,0 C 95 % 15 lf 1014,2 hPa 0,0 l/m 0 min 0 min 27 W/m 6,3 km/h (2 Bft)
27.06.2015 06:46 17,0 C 15,0 C 95 % 15 lf 1014,2 hPa 0,0 l/m 0 min 0 min 29 W/m 6,3 km/h (2 Bft)
27.06.2015 06:48 17,0 C 15,0 C 95 % 15 lf 1014,2 hPa 0,0 l/m 0 min 0 min 35 W/m 6,3 km/h (2 Bft)
27.06.2015 06:50 16,9 C 15,0 C 95 % 15 lf 1014,2 hPa 0,0 l/m 0 min 0 min 41 W/m 6,3 km/h (2 Bft)
27.06.2015 06:52 16,9 C 15,0 C 95 % 15 lf 1014,2 hPa 0,0 l/m 0 min 0 min 46 W/m 6,3 km/h (2 Bft)
27.06.2015 06:54 16,9 C 15,0 C 95 % 15 lf 1014,2 hPa 0,0 l/m 0 min 0 min 54 W/m 8,4 km/h (2 Bft)
27.06.2015 06:56 16,9 C 15,0 C 95 % 15 lf 1014,2 hPa 0,0 l/m 0 min 0 min 66 W/m 8,4 km/h (2 Bft)
27.06.2015 06:58 16,9 C 15,0 C 95 % 15 lf 1014,2 hPa 0,0 l/m 0 min 0 min 77 W/m 6,3 km/h (2 Bft)
27.06.2015 07:00 16,9 C 15,6 C 95 % 15 lf 1014,2 hPa 0,0 l/m 0 min 0 min 88 W/m 6,3 km/h (2 Bft)
27.06.2015 07:02 16,9 C 15,0 C 95 % 15 lf 1014,1 hPa 0,0 l/m 2 min 0 min 134 W/m 8,4 km/h (2 Bft)
27.06.2015 07:04 16,9 C 15,0 C 95 % 15 lf 1014,1 hPa 0,0 l/m 2 min 0 min 147 W/m 6,3 km/h (2 Bft)
27.06.2015 07:06 16,8 C 15,0 C 95 % 15 lf 1014,0 hPa 0,0 l/m 2 min 0 min 112 W/m 10,5 km/h (2 Bft)
27.06.2015 07:08 16,8 C 15,0 C 95 % 15 lf 1014,0 hPa 0,0 l/m 2 min 0 min 114 W/m 6,3 km/h (2 Bft)
27.06.2015 07:10 16,8 C 15,0 C 95 % 15 lf 1014,1 hPa 0,0 l/m 0 min 0 min 112 W/m 14,6 km/h (3 Bft)
27.06.2015 07:12 16,8 C 15,0 C 95 % 15 lf 1014,0 hPa 0,0 l/m 0 min 0 min 107 W/m 14,6 km/h (3 Bft)
27.06.2015 07:14 16,8 C 15,0 C 95 % 15 lf 1013,9 hPa 0,0 l/m 2 min 0 min 155 W/m 10,5 km/h (2 Bft)
27.06.2015 07:16 16,8 C 15,0 C 95 % 15 lf 1014,1 hPa 0,0 l/m 2 min 0 min 170 W/m 8,4 km/h (2 Bft)
27.06.2015 07:18 16,8 C 15,0 C 95 % 15 lf 1014,2 hPa 0,0 l/m 0 min 0 min 106 W/m 10,5 km/h (2 Bft)
27.06.2015 07:20 16,8 C 15,0 C 95 % 15 lf 1014,2 hPa 0,0 l/m 2 min 0 min 148 W/m 10,5 km/h (2 Bft)
27.06.2015 07:22 16,8 C 15,0 C 95 % 15 lf 1014,2 hPa 0,0 l/m 2 min 0 min 144 W/m 6,3 km/h (2 Bft)
27.06.2015 07:24 16,8 C 15,6 C 95 % 15 lf 1014,2 hPa 0,0 l/m 2 min 0 min 236 W/m 6,3 km/h (2 Bft)
27.06.2015 07:26 16,8 C 15,6 C 95 % 15 lf 1014,2 hPa 0,0 l/m 2 min 0 min 256 W/m 8,4 km/h (2 Bft)
27.06.2015 07:28 16,8 C 15,6 C 95 % 15 lf 1014,3 hPa 0,0 l/m 2 min 0 min 273 W/m 10,5 km/h (2 Bft)
27.06.2015 07:30 16,8 C 15,6 C 95 % 15 lf 1014,3 hPa 0,0 l/m 2 min 0 min 271 W/m 14,6 km/h (3 Bft)
27.06.2015 07:32 16,8 C 15,6 C 95 % 15 lf 1014,4 hPa 0,0 l/m 2 min 0 min 155 W/m 14,6 km/h (3 Bft)
27.06.2015 07:34 16,9 C 15,6 C 95 % 15 lf 1014,5 hPa 0,0 l/m 0 min 0 min 126 W/m 14,6 km/h (3 Bft)
27.06.2015 07:36 16,9 C 15,6 C 95 % 15 lf 1014,5 hPa 0,0 l/m 0 min 0 min 123 W/m 12,6 km/h (3 Bft)
27.06.2015 07:38 16,9 C 15,6 C 95 % 15 lf 1014,5 hPa 0,0 l/m 0 min 0 min 139 W/m 14,6 km/h (3 Bft)
27.06.2015 07:40 16,9 C 15,6 C 95 % 15 lf 1014,5 hPa 0,0 l/m 0 min 0 min 141 W/m 10,5 km/h (2 Bft)
27.06.2015 07:42 16,9 C 15,6 C 95 % 15 lf 1014,5 hPa 0,0 l/m 0 min 0 min 140 W/m 12,6 km/h (3 Bft)
27.06.2015 07:44 16,9 C 15,6 C 95 % 15 lf 1014,4 hPa 0,0 l/m 0 min 0 min 156 W/m 14,6 km/h (3 Bft)
27.06.2015 07:46 17,0 C 15,6 C 95 % 15 lf 1014,5 hPa 0,0 l/m 2 min 0 min 269 W/m 10,5 km/h (2 Bft)
27.06.2015 07:48 17,0 C 15,6 C 95 % 15 lf 1014,5 hPa 0,0 l/m 2 min 0 min 338 W/m 10,5 km/h (2 Bft)
27.06.2015 07:50 17,0 C 16,1 C 95 % 15 lf 1014,6 hPa 0,0 l/m 2 min 0 min 267 W/m 10,5 km/h (2 Bft)
27.06.2015 07:53 17,1 C 16,1 C 95 % 15 lf 1014,6 hPa 0,0 l/m 2 min 0 min 315 W/m 10,5 km/h (2 Bft)
27.06.2015 07:54 17,1 C 16,1 C 95 % 15 lf 1014,6 hPa 0,0 l/m 1 min 0 min 250 W/m 14,6 km/h (3 Bft)
27.06.2015 07:58 17,3 C 16,1 C 95 % 14 lf 1014,6 hPa 0,0 l/m 2 min 0 min 283 W/m 12,6 km/h (3 Bft)
27.06.2015 07:59 17,3 C 16,1 C 95 % 14 lf 1014,6 hPa 0,0 l/m 1 min 0 min 212 W/m 10,5 km/h (2 Bft)
27.06.2015 08:00 17,3 C 16,1 C 95 % 13 lf 1014,6 hPa 0,0 l/m 0 min 0 min 167 W/m 12,6 km/h (3 Bft)
27.06.2015 08:01 17,3 C 16,1 C 95 % 13 lf 1014,6 hPa 0,0 l/m 0 min 0 min 155 W/m 12,6 km/h (3 Bft)
27.06.2015 08:02 17,3 C 15,6 C 95 % 12 lf 1014,7 hPa 0,0 l/m 0 min 0 min 149 W/m 16,7 km/h (3 Bft)
27.06.2015 08:03 17,4 C 15,6 C 95 % 11 lf 1014,7 hPa 0,0 l/m 0 min 0 min 155 W/m 12,6 km/h (3 Bft)
27.06.2015 08:04 17,4 C 15,6 C 95 % 10 lf 1014,7 hPa 0,0 l/m 0 min 0 min 142 W/m 10,5 km/h (2 Bft)
27.06.2015 08:05 17,4 C 15,6 C 95 % 9 lf 1014,7 hPa 0,0 l/m 0 min 0 min 146 W/m 8,4 km/h (2 Bft)
27.06.2015 08:06 17,4 C 15,6 C 95 % 8 lf 1014,6 hPa 0,0 l/m 0 min 0 min 165 W/m 12,6 km/h (3 Bft)
27.06.2015 08:07 17,4 C 16,1 C 95 % 7 lf 1014,6 hPa 0,0 l/m 0 min 0 min 178 W/m 10,5 km/h (2 Bft)
27.06.2015 08:10 17,4 C 16,1 C 95 % 3 lf 1014,6 hPa 0,0 l/m 2 min 0 min 211 W/m 16,7 km/h (3 Bft)
27.06.2015 08:12 17,4 C 15,6 C 95 % 3 lf 1014,6 hPa 0,0 l/m 2 min 0 min 242 W/m 12,6 km/h (3 Bft)
27.06.2015 08:14 17,5 C 16,1 C 95 % 2 lf 1014,6 hPa 0,0 l/m 2 min 0 min 294 W/m 12,6 km/h (3 Bft)
27.06.2015 08:16 17,5 C 16,1 C 95 % 2 lf 1014,6 hPa 0,0 l/m 2 min 0 min 271 W/m 14,6 km/h (3 Bft)
27.06.2015 08:18 17,5 C 15,6 C 95 % 1 lf 1014,6 hPa 0,0 l/m 0 min 0 min 196 W/m 18,8 km/h (3 Bft)
27.06.2015 08:20 17,5 C 15,6 C 94 % 0 lf 1014,7 hPa 0,0 l/m 0 min 0 min 167 W/m 16,7 km/h (3 Bft)
27.06.2015 08:22 17,5 C 15,6 C 94 % 0 lf 1014,7 hPa 0,0 l/m 0 min 0 min 176 W/m 20,9 km/h (4 Bft)
27.06.2015 08:24 17,5 C 15,6 C 94 % 0 lf 1014,6 hPa 0,0 l/m 2 min 0 min 209 W/m 10,5 km/h (2 Bft)
27.06.2015 08:26 17,6 C 16,1 C 93 % 0 lf 1014,6 hPa 0,0 l/m 2 min 0 min 238 W/m 12,6 km/h (3 Bft)
27.06.2015 08:28 17,6 C 16,1 C 93 % 0 lf 1014,7 hPa 0,0 l/m 2 min 0 min 241 W/m 12,6 km/h (3 Bft)
27.06.2015 08:30 17,7 C 16,1 C 93 % 0 lf 1014,7 hPa 0,0 l/m 2 min 0 min 216 W/m 23,0 km/h (4 Bft)
27.06.2015 08:32 17,7 C 15,6 C 93 % 0 lf 1014,7 hPa 0,0 l/m 0 min 0 min 193 W/m 18,8 km/h (3 Bft)
27.06.2015 08:34 17,7 C 16,1 C 93 % 0 lf 1014,7 hPa 0,0 l/m 0 min 0 min 212 W/m 14,6 km/h (3 Bft)
27.06.2015 08:36 17,8 C 16,1 C 92 % 0 lf 1014,7 hPa 0,0 l/m 0 min 0 min 218 W/m 12,6 km/h (3 Bft)
27.06.2015 08:38 17,8 C 16,1 C 92 % 0 lf 1014,7 hPa 0,0 l/m 0 min 0 min 188 W/m 12,6 km/h (3 Bft)
27.06.2015 08:40 17,9 C 16,1 C 92 % 0 lf 1014,7 hPa 0,0 l/m 0 min 0 min 181 W/m 16,7 km/h (3 Bft)
27.06.2015 08:42 17,9 C 16,1 C 92 % 0 lf 1014,8 hPa 0,0 l/m 0 min 0 min 189 W/m 10,5 km/h (2 Bft)
27.06.2015 08:44 17,9 C 16,1 C 91 % 0 lf 1014,7 hPa 0,0 l/m 0 min 0 min 201 W/m 16,7 km/h (3 Bft)
27.06.2015 08:46 18,0 C 16,1 C 91 % 0 lf 1014,7 hPa 0,0 l/m 0 min 0 min 198 W/m 14,6 km/h (3 Bft)
27.06.2015 08:48 18,0 C 16,1 C 91 % 0 lf 1014,7 hPa 0,0 l/m 0 min 0 min 197 W/m 25,1 km/h (4 Bft)
27.06.2015 08:50 18,1 C 16,1 C 91 % 0 lf 1014,8 hPa 0,0 l/m 0 min 0 min 219 W/m 12,6 km/h (3 Bft)
27.06.2015 08:52 18,1 C 16,1 C 90 % 0 lf 1014,8 hPa 0,0 l/m 2 min 0 min 264 W/m 18,8 km/h (3 Bft)
27.06.2015 08:54 18,1 C 16,1 C 90 % 0 lf 1014,8 hPa 0,0 l/m 2 min 0 min 268 W/m 18,8 km/h (3 Bft)
27.06.2015 08:56 18,2 C 16,1 C 89 % 0 lf 1014,8 hPa 0,0 l/m 2 min 0 min 288 W/m 27,2 km/h (4 Bft)
27.06.2015 08:58 18,2 C 16,1 C 89 % 0 lf 1014,8 hPa 0,0 l/m 2 min 0 min 268 W/m 23,0 km/h (4 Bft)
27.06.2015 09:00 18,2 C 16,1 C 89 % 0 lf 1014,9 hPa 0,0 l/m 2 min 0 min 268 W/m 14,6 km/h (3 Bft)
27.06.2015 09:02 18,3 C 16,1 C 89 % 0 lf 1014,8 hPa 0,0 l/m 2 min 0 min 278 W/m 16,7 km/h (3 Bft)
27.06.2015 09:04 18,3 C 16,1 C 89 % 0 lf 1014,8 hPa 0,0 l/m 2 min 0 min 306 W/m 16,7 km/h (3 Bft)
27.06.2015 09:06 18,3 C 16,7 C 88 % 0 lf 1014,8 hPa 0,0 l/m 0 min 0 min 252 W/m 10,5 km/h (2 Bft)
27.06.2015 09:08 18,4 C 16,7 C 88 % 0 lf 1014,8 hPa 0,0 l/m 0 min 0 min 206 W/m 14,6 km/h (3 Bft)
27.06.2015 09:10 18,4 C 16,7 C 88 % 0 lf 1014,8 hPa 0,0 l/m 0 min 0 min 203 W/m 10,5 km/h (2 Bft)
27.06.2015 09:12 18,5 C 16,7 C 88 % 0 lf 1014,9 hPa 0,0 l/m 0 min 0 min 237 W/m 16,7 km/h (3 Bft)
27.06.2015 09:14 18,6 C 16,1 C 88 % 0 lf 1014,9 hPa 0,0 l/m 0 min 0 min 247 W/m 16,7 km/h (3 Bft)
27.06.2015 09:16 18,6 C 16,1 C 88 % 0 lf 1014,9 hPa 0,0 l/m 2 min 0 min 304 W/m 20,9 km/h (4 Bft)
27.06.2015 09:18 18,6 C 16,7 C 87 % 0 lf 1014,9 hPa 0,0 l/m 2 min 0 min 390 W/m 16,7 km/h (3 Bft)
27.06.2015 09:20 18,7 C 16,7 C 87 % 0 lf 1014,9 hPa 0,0 l/m 2 min 0 min 345 W/m 14,6 km/h (3 Bft)
27.06.2015 09:22 18,7 C 16,7 C 87 % 0 lf 1014,9 hPa 0,0 l/m 2 min 0 min 331 W/m 20,9 km/h (4 Bft)
27.06.2015 09:24 18,8 C 16,7 C 87 % 0 lf 1014,9 hPa 0,0 l/m 2 min 0 min 316 W/m 18,8 km/h (3 Bft)
27.06.2015 09:26 18,9 C 16,7 C 87 % 0 lf 1014,9 hPa 0,0 l/m 2 min 0 min 286 W/m 16,7 km/h (3 Bft)
27.06.2015 09:28 18,9 C 16,7 C 86 % 0 lf 1014,9 hPa 0,0 l/m 2 min 0 min 375 W/m 18,8 km/h (3 Bft)
27.06.2015 09:30 18,9 C 16,7 C 86 % 0 lf 1015,0 hPa 0,0 l/m 2 min 0 min 404 W/m 14,6 km/h (3 Bft)
27.06.2015 09:32 19,0 C 16,7 C 85 % 0 lf 1015,0 hPa 0,0 l/m 2 min 0 min 394 W/m 14,6 km/h (3 Bft)
27.06.2015 09:34 19,1 C 16,7 C 85 % 0 lf 1015,0 hPa 0,0 l/m 2 min 0 min 417 W/m 14,6 km/h (3 Bft)
27.06.2015 09:36 19,2 C 17,2 C 86 % 0 lf 1015,0 hPa 0,0 l/m 2 min 0 min 400 W/m 14,6 km/h (3 Bft)
27.06.2015 09:38 19,3 C 17,2 C 86 % 0 lf 1015,0 hPa 0,0 l/m 2 min 0 min 364 W/m 20,9 km/h (4 Bft)
27.06.2015 09:40 19,3 C 17,2 C 85 % 0 lf 1015,0 hPa 0,0 l/m 2 min 0 min 434 W/m 20,9 km/h (4 Bft)
27.06.2015 09:42 19,4 C 17,2 C 84 % 0 lf 1015,1 hPa 0,0 l/m 2 min 0 min 437 W/m 16,7 km/h (3 Bft)
27.06.2015 09:44 19,5 C 17,2 C 84 % 0 lf 1015,0 hPa 0,0 l/m 2 min 0 min 537 W/m 20,9 km/h (4 Bft)
27.06.2015 09:46 19,6 C 17,2 C 84 % 0 lf 1015,1 hPa 0,0 l/m 2 min 0 min 540 W/m 20,9 km/h (4 Bft)
27.06.2015 09:48 19,7 C 17,8 C 84 % 0 lf 1015,1 hPa 0,0 l/m 2 min 0 min 526 W/m 18,8 km/h (3 Bft)
27.06.2015 09:50 19,8 C 17,8 C 84 % 0 lf 1015,1 hPa 0,0 l/m 2 min 0 min 516 W/m 16,7 km/h (3 Bft)
27.06.2015 09:52 19,9 C 17,8 C 84 % 0 lf 1015,1 hPa 0,0 l/m 2 min 0 min 477 W/m 16,7 km/h (3 Bft)
27.06.2015 09:54 20,0 C 17,8 C 83 % 0 lf 1015,1 hPa 0,0 l/m 2 min 0 min 344 W/m 12,6 km/h (3 Bft)
27.06.2015 09:56 20,1 C 17,8 C 83 % 0 lf 1015,1 hPa 0,0 l/m 0 min 0 min 267 W/m 16,7 km/h (3 Bft)
27.06.2015 09:58 20,1 C 17,2 C 83 % 0 lf 1015,1 hPa 0,0 l/m 0 min 0 min 236 W/m 16,7 km/h (3 Bft)
27.06.2015 10:00 20,1 C 17,2 C 82 % 0 lf 1015,1 hPa 0,0 l/m 0 min 0 min 223 W/m 16,7 km/h (3 Bft)
27.06.2015 10:02 20,1 C 17,2 C 82 % 0 lf 1015,1 hPa 0,0 l/m 0 min 0 min 216 W/m 20,9 km/h (4 Bft)
27.06.2015 10:04 20,1 C 17,2 C 82 % 0 lf 1015,1 hPa 0,0 l/m 0 min 0 min 223 W/m 18,8 km/h (3 Bft)
27.06.2015 10:06 20,1 C 17,2 C 82 % 0 lf 1015,2 hPa 0,0 l/m 0 min 0 min 185 W/m 16,7 km/h (3 Bft)
27.06.2015 10:08 20,0 C 16,7 C 81 % 0 lf 1015,2 hPa 0,0 l/m 0 min 0 min 146 W/m 12,6 km/h (3 Bft)
27.06.2015 10:10 20,0 C 16,7 C 81 % 0 lf 1015,1 hPa 0,0 l/m 0 min 0 min 119 W/m 12,6 km/h (3 Bft)
27.06.2015 10:12 19,9 C 16,7 C 82 % 0 lf 1015,2 hPa 0,0 l/m 0 min 0 min 133 W/m 10,5 km/h (2 Bft)
27.06.2015 10:14 19,9 C 17,2 C 82 % 0 lf 1015,2 hPa 0,0 l/m 0 min 0 min 153 W/m 18,8 km/h (3 Bft)
27.06.2015 10:16 19,8 C 17,2 C 82 % 0 lf 1015,2 hPa 0,0 l/m 0 min 0 min 120 W/m 14,6 km/h (3 Bft)
27.06.2015 10:18 19,8 C 17,2 C 82 % 0 lf 1015,2 hPa 0,0 l/m 0 min 0 min 127 W/m 12,6 km/h (3 Bft)
27.06.2015 10:20 19,8 C 17,2 C 82 % 0 lf 1015,3 hPa 0,0 l/m 0 min 0 min 147 W/m 23,0 km/h (4 Bft)
27.06.2015 10:22 19,7 C 17,2 C 82 % 0 lf 1015,3 hPa 0,0 l/m 0 min 0 min 135 W/m 16,7 km/h (3 Bft)
27.06.2015 10:24 19,6 C 17,2 C 82 % 0 lf 1015,4 hPa 0,0 l/m 0 min 0 min 131 W/m 23,0 km/h (4 Bft)
27.06.2015 10:26 19,6 C 17,8 C 82 % 0 lf 1015,3 hPa 0,0 l/m 0 min 0 min 170 W/m 16,7 km/h (3 Bft)
27.06.2015 10:28 19,6 C 17,8 C 82 % 0 lf 1015,3 hPa 0,0 l/m 0 min 0 min 208 W/m 12,6 km/h (3 Bft)
27.06.2015 10:30 19,6 C 18,3 C 83 % 0 lf 1015,4 hPa 0,0 l/m 0 min 0 min 231 W/m 12,6 km/h (3 Bft)
27.06.2015 10:32 19,6 C 18,3 C 83 % 0 lf 1015,4 hPa 0,0 l/m 0 min 0 min 270 W/m 16,7 km/h (3 Bft)
27.06.2015 10:34 19,6 C 18,9 C 83 % 0 lf 1015,4 hPa 0,0 l/m 0 min 0 min 252 W/m 16,7 km/h (3 Bft)
27.06.2015 10:36 19,6 C 18,9 C 84 % 0 lf 1015,4 hPa 0,0 l/m 0 min 0 min 232 W/m 14,6 km/h (3 Bft)
27.06.2015 10:38 19,6 C 18,3 C 84 % 0 lf 1015,4 hPa 0,0 l/m 0 min 0 min 193 W/m 12,6 km/h (3 Bft)
27.06.2015 10:40 19,6 C 18,3 C 84 % 0 lf 1015,4 hPa 0,0 l/m 0 min 0 min 188 W/m 12,6 km/h (3 Bft)
27.06.2015 10:42 19,6 C 18,3 C 84 % 0 lf 1015,4 hPa 0,0 l/m 0 min 0 min 163 W/m 14,6 km/h (3 Bft)
27.06.2015 10:44 19,7 C 18,3 C 84 % 0 lf 1015,4 hPa 0,0 l/m 0 min 0 min 177 W/m 12,6 km/h (3 Bft)
27.06.2015 10:46 19,7 C 18,3 C 84 % 0 lf 1015,4 hPa 0,0 l/m 0 min 0 min 208 W/m 14,6 km/h (3 Bft)
27.06.2015 10:48 19,7 C 18,3 C 83 % 0 lf 1015,4 hPa 0,0 l/m 0 min 0 min 214 W/m 16,7 km/h (3 Bft)
27.06.2015 10:50 19,7 C 18,9 C 83 % 0 lf 1015,5 hPa 0,0 l/m 0 min 0 min 225 W/m 23,0 km/h (4 Bft)
27.06.2015 10:52 19,7 C 18,9 C 83 % 0 lf 1015,6 hPa 0,0 l/m 0 min 0 min 192 W/m 16,7 km/h (3 Bft)
27.06.2015 10:54 19,7 C 18,3 C 83 % 0 lf 1015,5 hPa 0,0 l/m 0 min 0 min 181 W/m 20,9 km/h (4 Bft)
27.06.2015 10:56 19,7 C 18,3 C 83 % 0 lf 1015,6 hPa 0,0 l/m 0 min 0 min 184 W/m 31,4 km/h (5 Bft)
27.06.2015 10:58 19,7 C 18,3 C 83 % 0 lf 1015,6 hPa 0,0 l/m 0 min 0 min 176 W/m 16,7 km/h (3 Bft)
27.06.2015 11:00 19,7 C 18,3 C 83 % 0 lf 1015,5 hPa 0,0 l/m 0 min 0 min 164 W/m 12,6 km/h (3 Bft)
27.06.2015 11:02 19,7 C 18,3 C 83 % 0 lf 1015,5 hPa 0,0 l/m 0 min 0 min 216 W/m 16,7 km/h (3 Bft)
27.06.2015 11:04 19,7 C 18,3 C 83 % 0 lf 1015,6 hPa 0,0 l/m 0 min 0 min 216 W/m 16,7 km/h (3 Bft)
27.06.2015 11:06 19,7 C 18,9 C 83 % 0 lf 1015,6 hPa 0,0 l/m 0 min 0 min 249 W/m 14,6 km/h (3 Bft)
27.06.2015 11:08 19,7 C 18,9 C 83 % 0 lf 1015,6 hPa 0,0 l/m 0 min 0 min 289 W/m 14,6 km/h (3 Bft)
27.06.2015 11:10 19,8 C 19,4 C 84 % 0 lf 1015,6 hPa 0,0 l/m 0 min 0 min 337 W/m 18,8 km/h (3 Bft)
27.06.2015 11:12 19,8 C 19,4 C 84 % 0 lf 1015,7 hPa 0,0 l/m 0 min 0 min 346 W/m 16,7 km/h (3 Bft)
27.06.2015 11:14 19,8 C 19,4 C 83 % 0 lf 1015,6 hPa 0,0 l/m 0 min 0 min 345 W/m 16,7 km/h (3 Bft)
27.06.2015 11:16 19,9 C 19,4 C 83 % 0 lf 1015,7 hPa 0,0 l/m 0 min 0 min 325 W/m 20,9 km/h (4 Bft)
27.06.2015 11:18 19,9 C 19,4 C 83 % 0 lf 1015,7 hPa 0,0 l/m 0 min 0 min 323 W/m 18,8 km/h (3 Bft)
27.06.2015 11:20 20,0 C 19,4 C 83 % 0 lf 1015,7 hPa 0,0 l/m 0 min 0 min 337 W/m 16,7 km/h (3 Bft)
27.06.2015 11:22 20,1 C 20,0 C 83 % 0 lf 1015,7 hPa 0,0 l/m 0 min 0 min 341 W/m 20,9 km/h (4 Bft)
27.06.2015 11:24 20,1 C 20,0 C 83 % 0 lf 1015,8 hPa 0,0 l/m 0 min 0 min 329 W/m 10,5 km/h (2 Bft)
27.06.2015 11:26 20,2 C 20,0 C 83 % 0 lf 1015,7 hPa 0,0 l/m 0 min 0 min 343 W/m 20,9 km/h (4 Bft)
27.06.2015 11:28 20,3 C 20,0 C 83 % 0 lf 1015,8 hPa 0,0 l/m 0 min 0 min 350 W/m 20,9 km/h (4 Bft)
27.06.2015 11:30 20,3 C 20,0 C 83 % 0 lf 1015,8 hPa 0,0 l/m 0 min 0 min 349 W/m 14,6 km/h (3 Bft)
27.06.2015 11:32 20,3 C 20,0 C 82 % 0 lf 1015,8 hPa 0,0 l/m 0 min 0 min 320 W/m 23,0 km/h (4 Bft)
27.06.2015 11:34 20,4 C 20,0 C 82 % 0 lf 1015,7 hPa 0,0 l/m 0 min 0 min 373 W/m 23,0 km/h (4 Bft)
27.06.2015 11:36 20,4 C 20,0 C 81 % 0 lf 1015,8 hPa 0,0 l/m 2 min 0 min 418 W/m 14,6 km/h (3 Bft)
27.06.2015 11:38 20,4 C 20,0 C 81 % 0 lf 1015,8 hPa 0,0 l/m 0 min 0 min 381 W/m 16,7 km/h (3 Bft)
27.06.2015 11:40 20,5 C 20,0 C 81 % 0 lf 1015,8 hPa 0,0 l/m 0 min 0 min 367 W/m 23,0 km/h (4 Bft)
27.06.2015 11:42 20,6 C 20,0 C 81 % 0 lf 1015,8 hPa 0,0 l/m 2 min 0 min 399 W/m 16,7 km/h (3 Bft)
27.06.2015 11:44 20,6 C 20,0 C 80 % 0 lf 1015,8 hPa 0,0 l/m 2 min 0 min 432 W/m 25,1 km/h (4 Bft)
27.06.2015 11:46 20,7 C 21,1 C 81 % 0 lf 1015,9 hPa 0,0 l/m 2 min 0 min 526 W/m 20,9 km/h (4 Bft)
27.06.2015 11:48 20,8 C 21,7 C 81 % 0 lf 1015,9 hPa 0,0 l/m 2 min 0 min 652 W/m 16,7 km/h (3 Bft)
27.06.2015 11:50 20,9 C 21,7 C 81 % 0 lf 1015,9 hPa 0,0 l/m 2 min 0 min 618 W/m 25,1 km/h (4 Bft)
27.06.2015 11:52 21,0 C 21,1 C 81 % 0 lf 1015,9 hPa 0,0 l/m 2 min 0 min 517 W/m 18,8 km/h (3 Bft)
27.06.2015 11:54 21,0 C 20,6 C 80 % 0 lf 1015,9 hPa 0,0 l/m 0 min 0 min 329 W/m 25,1 km/h (4 Bft)
27.06.2015 11:56 21,0 C 21,1 C 79 % 0 lf 1016,0 hPa 0,0 l/m 2 min 0 min 436 W/m 20,9 km/h (4 Bft)
27.06.2015 11:58 21,1 C 22,2 C 79 % 0 lf 1016,0 hPa 0,0 l/m 2 min 0 min 1044 W/m 20,9 km/h (4 Bft)
27.06.2015 12:00 21,2 C 23,3 C 78 % 0 lf 1015,9 hPa 0,0 l/m 2 min 0 min 1137 W/m 16,7 km/h (3 Bft)
27.06.2015 12:03 21,4 C 24,4 C 79 % 0 lf 1015,9 hPa 0,0 l/m 2 min 0 min 835 W/m 25,1 km/h (4 Bft)
27.06.2015 12:07 21,7 C 23,3 C 78 % 0 lf 1015,9 hPa 0,0 l/m 2 min 0 min 835 W/m 25,1 km/h (4 Bft)
27.06.2015 12:10 21,9 C 23,3 C 78 % 0 lf 1015,9 hPa 0,0 l/m 2 min 0 min 839 W/m 25,1 km/h (4 Bft)
27.06.2015 12:12 22,0 C 22,8 C 77 % 0 lf 1015,8 hPa 0,0 l/m 2 min 0 min 458 W/m 20,9 km/h (4 Bft)
27.06.2015 12:14 22,1 C 22,2 C 77 % 0 lf 1016,1 hPa 0,0 l/m 0 min 0 min 372 W/m 20,9 km/h (4 Bft)
27.06.2015 12:16 22,2 C 21,7 C 76 % 0 lf 1016,1 hPa 0,0 l/m 0 min 0 min 307 W/m 20,9 km/h (4 Bft)
27.06.2015 12:18 22,1 C 21,1 C 76 % 0 lf 1016,1 hPa 0,0 l/m 0 min 0 min 287 W/m 23,0 km/h (4 Bft)
27.06.2015 12:20 22,1 C 20,6 C 76 % 0 lf 1016,2 hPa 0,0 l/m 0 min 0 min 296 W/m 20,9 km/h (4 Bft)
27.06.2015 12:22 22,0 C 20,6 C 75 % 0 lf 1016,1 hPa 0,0 l/m 0 min 0 min 252 W/m 23,0 km/h (4 Bft)
27.06.2015 12:24 21,9 C 20,0 C 75 % 0 lf 1016,2 hPa 0,0 l/m 0 min 0 min 231 W/m 16,7 km/h (3 Bft)
27.06.2015 12:26 21,8 C 20,0 C 75 % 1 lf 1016,2 hPa 0,0 l/m 0 min 0 min 190 W/m 23,0 km/h (4 Bft)
27.06.2015 12:28 21,8 C 19,4 C 75 % 0 lf 1016,2 hPa 0,0 l/m 0 min 0 min 167 W/m 18,8 km/h (3 Bft)
27.06.2015 12:30 21,7 C 19,4 C 76 % 7 lf 1016,3 hPa 0,0 l/m 0 min 2 min 175 W/m 23,0 km/h (4 Bft)
27.06.2015 12:32 21,6 C 18,9 C 76 % 1 lf 1016,3 hPa 0,0 l/m 0 min 2 min 192 W/m 25,1 km/h (4 Bft)
27.06.2015 12:34 21,4 C 18,9 C 76 % 4 lf 1016,3 hPa 0,0 l/m 0 min 2 min 197 W/m 29,3 km/h (5 Bft)
27.06.2015 12:36 21,4 C 18,9 C 77 % 0 lf 1016,4 hPa 0,0 l/m 0 min 2 min 206 W/m 14,6 km/h (3 Bft)
27.06.2015 12:38 21,3 C 18,9 C 77 % 0 lf 1016,4 hPa 0,0 l/m 0 min 0 min 222 W/m 16,7 km/h (3 Bft)
27.06.2015 12:40 21,2 C 18,9 C 78 % 0 lf 1016,4 hPa 0,0 l/m 0 min 0 min 255 W/m 18,8 km/h (3 Bft)
27.06.2015 12:42 21,2 C 19,4 C 78 % 0 lf 1016,4 hPa 0,0 l/m 0 min 0 min 306 W/m 10,5 km/h (2 Bft)
27.06.2015 12:44 21,2 C 20,0 C 79 % 0 lf 1016,4 hPa 0,0 l/m 0 min 0 min 412 W/m 12,6 km/h (3 Bft)
27.06.2015 12:46 21,2 C 20,6 C 79 % 0 lf 1016,4 hPa 0,0 l/m 2 min 0 min 461 W/m 16,7 km/h (3 Bft)
27.06.2015 12:48 21,3 C 21,1 C 80 % 0 lf 1016,4 hPa 0,0 l/m 2 min 0 min 517 W/m 18,8 km/h (3 Bft)
27.06.2015 12:50 21,3 C 21,7 C 79 % 0 lf 1016,3 hPa 0,0 l/m 2 min 0 min 562 W/m 16,7 km/h (3 Bft)
27.06.2015 12:52 21,4 C 22,2 C 79 % 0 lf 1016,3 hPa 0,0 l/m 2 min 0 min 578 W/m 18,8 km/h (3 Bft)
27.06.2015 12:54 21,5 C 22,8 C 78 % 0 lf 1016,3 hPa 0,0 l/m 2 min 0 min 672 W/m 18,8 km/h (3 Bft)
27.06.2015 12:56 21,6 C 22,8 C 78 % 0 lf 1016,3 hPa 0,0 l/m 2 min 0 min 726 W/m 18,8 km/h (3 Bft)
27.06.2015 12:58 21,7 C 22,2 C 77 % 0 lf 1016,3 hPa 0,0 l/m 0 min 0 min 405 W/m 12,6 km/h (3 Bft)
27.06.2015 13:00 21,8 C 22,2 C 78 % 0 lf 1016,3 hPa 0,0 l/m 2 min 0 min 478 W/m 25,1 km/h (4 Bft)
27.06.2015 13:02 22,0 C 22,8 C 77 % 0 lf 1016,4 hPa 0,0 l/m 2 min 0 min 963 W/m 16,7 km/h (3 Bft)
27.06.2015 13:04 22,2 C 22,2 C 76 % 0 lf 1016,4 hPa 0,0 l/m 0 min 0 min 412 W/m 23,0 km/h (4 Bft)
27.06.2015 13:06 22,3 C 22,2 C 75 % 0 lf 1016,5 hPa 0,0 l/m 0 min 0 min 328 W/m 14,6 km/h (3 Bft)
27.06.2015 13:08 22,3 C 21,7 C 75 % 0 lf 1016,4 hPa 0,0 l/m 0 min 0 min 251 W/m 18,8 km/h (3 Bft)
27.06.2015 13:10 22,3 C 21,1 C 73 % 0 lf 1016,5 hPa 0,0 l/m 0 min 0 min 212 W/m 27,2 km/h (4 Bft)
27.06.2015 13:12 22,3 C 20,6 C 73 % 0 lf 1016,5 hPa 0,0 l/m 0 min 0 min 210 W/m 25,1 km/h (4 Bft)
27.06.2015 13:14 22,2 C 20,6 C 74 % 0 lf 1016,4 hPa 0,0 l/m 0 min 0 min 216 W/m 16,7 km/h (3 Bft)
27.06.2015 13:16 22,2 C 20,6 C 74 % 0 lf 1016,5 hPa 0,0 l/m 0 min 2 min 197 W/m 14,6 km/h (3 Bft)
27.06.2015 13:18 22,2 C 20,0 C 74 % 0 lf 1016,6 hPa 0,0 l/m 0 min 0 min 169 W/m 16,7 km/h (3 Bft)
27.06.2015 13:20 22,1 C 20,0 C 74 % 0 lf 1016,6 hPa 0,0 l/m 0 min 2 min 149 W/m 27,2 km/h (4 Bft)
27.06.2015 13:22 21,9 C 19,4 C 74 % 0 lf 1016,6 hPa 0,0 l/m 0 min 0 min 139 W/m 25,1 km/h (4 Bft)
27.06.2015 13:24 21,8 C 19,4 C 74 % 15 lf 1016,7 hPa 0,0 l/m 0 min 2 min 146 W/m 18,8 km/h (3 Bft)
27.06.2015 13:26 21,7 C 18,9 C 76 % 15 lf 1016,7 hPa 0,0 l/m 0 min 2 min 213 W/m 18,8 km/h (3 Bft)
27.06.2015 13:28 21,7 C 18,9 C 77 % 15 lf 1016,8 hPa 0,0 l/m 0 min 2 min 290 W/m 16,7 km/h (3 Bft)
27.06.2015 13:30 21,6 C 19,4 C 77 % 3 lf 1016,7 hPa 0,0 l/m 0 min 0 min 361 W/m 18,8 km/h (3 Bft)
27.06.2015 13:32 21,6 C 20,0 C 78 % 0 lf 1016,7 hPa 0,0 l/m 2 min 0 min 548 W/m 20,9 km/h (4 Bft)
27.06.2015 13:34 21,7 C 20,6 C 79 % 0 lf 1016,7 hPa 0,0 l/m 2 min 0 min 582 W/m 12,6 km/h (3 Bft)
27.06.2015 13:35 21,8 C 21,1 C 80 % 0 lf 1016,7 hPa 0,0 l/m 1 min 0 min 582 W/m 12,6 km/h (3 Bft)
27.06.2015 13:38 22,0 C 21,7 C 79 % 0 lf 1016,7 hPa 0,0 l/m 2 min 0 min 509 W/m 16,7 km/h (3 Bft)
27.06.2015 13:40 22,1 C 21,7 C 78 % 0 lf 1016,7 hPa 0,0 l/m 2 min 0 min 554 W/m 16,7 km/h (3 Bft)
27.06.2015 13:42 22,3 C 22,2 C 78 % 0 lf 1016,7 hPa 0,0 l/m 2 min 0 min 562 W/m 16,7 km/h (3 Bft)
27.06.2015 13:44 22,4 C 22,8 C 77 % 0 lf 1016,7 hPa 0,0 l/m 2 min 0 min 939 W/m 20,9 km/h (4 Bft)
27.06.2015 13:46 22,5 C 22,8 C 76 % 0 lf 1016,7 hPa 0,0 l/m 2 min 0 min 998 W/m 23,0 km/h (4 Bft)
27.06.2015 13:48 22,6 C 22,8 C 75 % 0 lf 1016,7 hPa 0,0 l/m 2 min 0 min 670 W/m 14,6 km/h (3 Bft)
27.06.2015 13:50 22,7 C 22,2 C 73 % 0 lf 1016,7 hPa 0,0 l/m 0 min 0 min 318 W/m 23,0 km/h (4 Bft)
27.06.2015 13:52 22,7 C 21,7 C 73 % 0 lf 1016,6 hPa 0,0 l/m 0 min 0 min 278 W/m 23,0 km/h (4 Bft)
27.06.2015 13:54 22,8 C 21,7 C 72 % 0 lf 1016,6 hPa 0,0 l/m 0 min 0 min 334 W/m 20,9 km/h (4 Bft)
27.06.2015 13:56 22,8 C 22,2 C 73 % 0 lf 1016,7 hPa 0,0 l/m 0 min 0 min 369 W/m 20,9 km/h (4 Bft)
27.06.2015 13:58 22,9 C 22,8 C 73 % 0 lf 1016,6 hPa 0,0 l/m 2 min 0 min 877 W/m 20,9 km/h (4 Bft)
27.06.2015 14:00 23,0 C 23,3 C 75 % 0 lf 1016,6 hPa 0,0 l/m 2 min 0 min 963 W/m 14,6 km/h (3 Bft)
27.06.2015 14:02 23,2 C 23,3 C 73 % 0 lf 1016,6 hPa 0,0 l/m 2 min 0 min 1143 W/m 16,7 km/h (3 Bft)
27.06.2015 14:04 23,3 C 23,9 C 74 % 0 lf 1016,7 hPa 0,0 l/m 2 min 0 min 1118 W/m 20,9 km/h (4 Bft)
27.06.2015 14:06 23,6 C 23,9 C 73 % 0 lf 1016,6 hPa 0,0 l/m 2 min 0 min 1115 W/m 25,1 km/h (4 Bft)
27.06.2015 14:08 23,7 C 23,3 C 70 % 0 lf 1016,6 hPa 0,0 l/m 2 min 0 min 482 W/m 18,8 km/h (3 Bft)
27.06.2015 14:10 23,8 C 23,3 C 71 % 0 lf 1016,6 hPa 0,0 l/m 0 min 0 min 408 W/m 23,0 km/h (4 Bft)
27.06.2015 14:12 23,8 C 22,8 C 68 % 0 lf 1016,6 hPa 0,0 l/m 0 min 0 min 339 W/m 16,7 km/h (3 Bft)
27.06.2015 14:14 23,8 C 22,2 C 67 % 0 lf 1016,7 hPa 0,0 l/m 0 min 0 min 234 W/m 31,4 km/h (5 Bft)
27.06.2015 14:16 23,7 C 21,7 C 66 % 0 lf 1016,7 hPa 0,0 l/m 0 min 0 min 199 W/m 35,6 km/h (5 Bft)
27.06.2015 14:18 23,6 C 21,1 C 64 % 0 lf 1016,6 hPa 0,0 l/m 0 min 0 min 216 W/m 37,7 km/h (5 Bft)
27.06.2015 14:20 23,4 C 21,1 C 63 % 0 lf 1016,6 hPa 0,0 l/m 0 min 0 min 231 W/m 31,4 km/h (5 Bft)
27.06.2015 14:22 23,3 C 21,1 C 63 % 0 lf 1016,7 hPa 0,0 l/m 0 min 0 min 279 W/m 25,1 km/h (4 Bft)
27.06.2015 14:24 23,3 C 22,2 C 65 % 0 lf 1016,7 hPa 0,0 l/m 2 min 0 min 824 W/m 23,0 km/h (4 Bft)
27.06.2015 14:26 23,4 C 22,8 C 65 % 0 lf 1016,7 hPa 0,0 l/m 2 min 0 min 969 W/m 25,1 km/h (4 Bft)
27.06.2015 14:28 23,4 C 22,8 C 65 % 0 lf 1016,7 hPa 0,0 l/m 2 min 0 min 779 W/m 33,5 km/h (5 Bft)
27.06.2015 14:30 23,5 C 22,2 C 64 % 0 lf 1016,7 hPa 0,0 l/m 0 min 0 min 301 W/m 23,0 km/h (4 Bft)
27.06.2015 14:31 23,5 C 22,2 C 64 % 0 lf 1016,7 hPa 0,0 l/m 0 min 0 min 292 W/m 12,6 km/h (3 Bft)
27.06.2015 14:32 23,5 C 22,2 C 63 % 0 lf 1016,7 hPa 0,0 l/m 0 min 0 min 263 W/m 18,8 km/h (3 Bft)
27.06.2015 14:33 23,5 C 22,2 C 63 % 0 lf 1016,6 hPa 0,0 l/m 0 min 0 min 264 W/m 29,3 km/h (5 Bft)
27.06.2015 14:34 23,4 C 21,7 C 64 % 0 lf 1016,6 hPa 0,0 l/m 0 min 0 min 260 W/m 29,3 km/h (5 Bft)
27.06.2015 14:35 23,4 C 21,7 C 64 % 0 lf 1016,7 hPa 0,0 l/m 0 min 0 min 283 W/m 14,6 km/h (3 Bft)
27.06.2015 14:36 23,4 C 21,7 C 64 % 0 lf 1016,6 hPa 0,0 l/m 0 min 0 min 272 W/m 20,9 km/h (4 Bft)
27.06.2015 14:37 23,4 C 21,7 C 64 % 0 lf 1016,6 hPa 0,0 l/m 0 min 0 min 287 W/m 14,6 km/h (3 Bft)
27.06.2015 14:38 23,3 C 21,7 C 65 % 0 lf 1016,6 hPa 0,0 l/m 0 min 0 min 263 W/m 35,6 km/h (5 Bft)
27.06.2015 14:39 23,3 C 21,7 C 64 % 0 lf 1016,7 hPa 0,0 l/m 0 min 0 min 250 W/m 25,1 km/h (4 Bft)
27.06.2015 14:40 23,2 C 21,7 C 65 % 0 lf 1016,7 hPa 0,0 l/m 0 min 0 min 297 W/m 29,3 km/h (5 Bft)
27.06.2015 14:42 23,2 C 21,7 C 65 % 0 lf 1016,8 hPa 0,0 l/m 0 min 0 min 322 W/m 20,9 km/h (4 Bft)
27.06.2015 14:44 23,1 C 21,7 C 66 % 0 lf 1016,8 hPa 0,0 l/m 0 min 0 min 326 W/m 25,1 km/h (4 Bft)
27.06.2015 14:46 23,1 C 22,2 C 66 % 0 lf 1016,8 hPa 0,0 l/m 2 min 0 min 728 W/m 33,5 km/h (5 Bft)
27.06.2015 14:48 23,2 C 22,8 C 64 % 0 lf 1016,8 hPa 0,0 l/m 2 min 0 min 927 W/m 31,4 km/h (5 Bft)
27.06.2015 14:50 23,3 C 22,8 C 64 % 0 lf 1016,9 hPa 0,0 l/m 2 min 0 min 968 W/m 29,3 km/h (5 Bft)
27.06.2015 14:52 23,5 C 23,3 C 63 % 0 lf 1016,9 hPa 0,0 l/m 2 min 0 min 970 W/m 27,2 km/h (4 Bft)
27.06.2015 14:54 23,7 C 23,3 C 65 % 0 lf 1016,9 hPa 0,0 l/m 2 min 0 min 978 W/m 20,9 km/h (4 Bft)
27.06.2015 14:56 23,9 C 23,9 C 63 % 0 lf 1016,8 hPa 0,0 l/m 2 min 0 min 968 W/m 29,3 km/h (5 Bft)
27.06.2015 14:58 24,1 C 23,9 C 63 % 0 lf 1016,8 hPa 0,0 l/m 2 min 0 min 845 W/m 20,9 km/h (4 Bft)
27.06.2015 15:00 24,2 C 23,9 C 61 % 0 lf 1016,9 hPa 0,0 l/m 2 min 0 min 481 W/m 25,1 km/h (4 Bft)
27.06.2015 15:02 24,3 C 23,3 C 61 % 0 lf 1016,8 hPa 0,0 l/m 0 min 0 min 375 W/m 25,1 km/h (4 Bft)
27.06.2015 15:04 24,3 C 23,3 C 60 % 0 lf 1016,9 hPa 0,0 l/m 0 min 0 min 371 W/m 27,2 km/h (4 Bft)
27.06.2015 15:06 24,3 C 22,8 C 61 % 0 lf 1016,9 hPa 0,0 l/m 0 min 0 min 365 W/m 27,2 km/h (4 Bft)
27.06.2015 15:08 24,3 C 22,8 C 61 % 0 lf 1016,9 hPa 0,0 l/m 0 min 0 min 382 W/m 25,1 km/h (4 Bft)
27.06.2015 15:10 24,3 C 22,8 C 61 % 0 lf 1017,1 hPa 0,0 l/m 0 min 0 min 317 W/m 29,3 km/h (5 Bft)
27.06.2015 15:12 24,2 C 22,2 C 60 % 0 lf 1017,1 hPa 0,0 l/m 0 min 0 min 279 W/m 25,1 km/h (4 Bft)
27.06.2015 15:14 24,2 C 22,2 C 60 % 0 lf 1017,0 hPa 0,0 l/m 2 min 0 min 681 W/m 20,9 km/h (4 Bft)
27.06.2015 15:16 24,1 C 22,8 C 60 % 0 lf 1017,0 hPa 0,0 l/m 2 min 0 min 948 W/m 35,6 km/h (5 Bft)
27.06.2015 15:18 24,1 C 22,8 C 60 % 0 lf 1017,1 hPa 0,0 l/m 0 min 0 min 368 W/m 35,6 km/h (5 Bft)
27.06.2015 15:20 24,1 C 23,3 C 61 % 0 lf 1017,1 hPa 0,0 l/m 2 min 0 min 680 W/m 29,3 km/h (5 Bft)
27.06.2015 15:22 24,1 C 23,3 C 60 % 0 lf 1017,1 hPa 0,0 l/m 2 min 0 min 879 W/m 27,2 km/h (4 Bft)
27.06.2015 15:24 24,2 C 23,3 C 62 % 0 lf 1017,1 hPa 0,0 l/m 2 min 0 min 869 W/m 18,8 km/h (3 Bft)
27.06.2015 15:26 24,3 C 23,9 C 61 % 0 lf 1017,1 hPa 0,0 l/m 2 min 0 min 816 W/m 23,0 km/h (4 Bft)
27.06.2015 15:28 24,3 C 23,3 C 59 % 0 lf 1017,0 hPa 0,0 l/m 2 min 0 min 642 W/m 25,1 km/h (4 Bft)
27.06.2015 15:30 24,3 C 22,8 C 60 % 0 lf 1017,1 hPa 0,0 l/m 0 min 0 min 243 W/m 27,2 km/h (4 Bft)
27.06.2015 15:32 24,3 C 22,8 C 60 % 0 lf 1017,1 hPa 0,0 l/m 0 min 0 min 257 W/m 31,4 km/h (5 Bft)
27.06.2015 15:34 24,3 C 22,8 C 59 % 0 lf 1017,1 hPa 0,0 l/m 2 min 0 min 772 W/m 25,1 km/h (4 Bft)
27.06.2015 15:36 24,3 C 22,8 C 58 % 0 lf 1017,1 hPa 0,0 l/m 2 min 0 min 889 W/m 29,3 km/h (5 Bft)
27.06.2015 15:38 24,3 C 22,8 C 58 % 0 lf 1017,1 hPa 0,0 l/m 2 min 0 min 889 W/m 27,2 km/h (4 Bft)
27.06.2015 15:40 24,3 C 23,3 C 58 % 0 lf 1017,0 hPa 0,0 l/m 2 min 0 min 884 W/m 25,1 km/h (4 Bft)
27.06.2015 15:42 24,4 C 23,3 C 59 % 0 lf 1017,1 hPa 0,0 l/m 2 min 0 min 874 W/m 23,0 km/h (4 Bft)
27.06.2015 15:44 24,4 C 23,9 C 57 % 0 lf 1017,2 hPa 0,0 l/m 2 min 0 min 872 W/m 27,2 km/h (4 Bft)
27.06.2015 15:46 24,5 C 23,3 C 57 % 0 lf 1017,2 hPa 0,0 l/m 2 min 0 min 889 W/m 35,6 km/h (5 Bft)
27.06.2015 15:48 24,5 C 24,4 C 57 % 0 lf 1017,2 hPa 0,0 l/m 2 min 0 min 889 W/m 35,6 km/h (5 Bft)
27.06.2015 15:50 24,6 C 25,6 C 57 % 0 lf 1017,1 hPa 0,0 l/m 2 min 0 min 855 W/m 31,4 km/h (5 Bft)
27.06.2015 15:52 24,7 C 26,7 C 56 % 0 lf 1017,1 hPa 0,0 l/m 2 min 0 min 843 W/m 35,6 km/h (5 Bft)
27.06.2015 15:54 24,8 C 27,8 C 57 % 0 lf 1017,2 hPa 0,0 l/m 2 min 0 min 839 W/m 23,0 km/h (4 Bft)
27.06.2015 15:56 24,9 C 28,3 C 56 % 0 lf 1017,2 hPa 0,0 l/m 2 min 0 min 840 W/m 27,2 km/h (4 Bft)
27.06.2015 15:58 24,9 C 27,2 C 53 % 0 lf 1017,1 hPa 0,0 l/m 2 min 0 min 871 W/m 29,3 km/h (5 Bft)
27.06.2015 16:00 24,9 C 26,7 C 54 % 0 lf 1017,1 hPa 0,0 l/m 2 min 0 min 882 W/m 23,0 km/h (4 Bft)
27.06.2015 16:02 24,9 C 26,7 C 55 % 0 lf 1017,1 hPa 0,0 l/m 2 min 0 min 870 W/m 20,9 km/h (4 Bft)
27.06.2015 16:04 25,1 C 26,1 C 56 % 0 lf 1017,1 hPa 0,0 l/m 2 min 0 min 833 W/m 41,8 km/h (6 Bft)
27.06.2015 16:06 25,1 C 26,1 C 56 % 0 lf 1017,1 hPa 0,0 l/m 2 min 0 min 823 W/m 23,0 km/h (4 Bft)
27.06.2015 16:08 25,2 C 25,6 C 56 % 0 lf 1017,1 hPa 0,0 l/m 2 min 0 min 822 W/m 25,1 km/h (4 Bft)
27.06.2015 16:10 25,2 C 24,4 C 52 % 0 lf 1017,2 hPa 0,0 l/m 2 min 0 min 824 W/m 23,0 km/h (4 Bft)
27.06.2015 16:12 25,1 C 24,4 C 53 % 0 lf 1017,2 hPa 0,0 l/m 2 min 0 min 824 W/m 31,4 km/h (5 Bft)
27.06.2015 16:14 25,1 C 23,9 C 54 % 0 lf 1017,2 hPa 0,0 l/m 2 min 0 min 863 W/m 33,5 km/h (5 Bft)
27.06.2015 16:16 25,1 C 23,9 C 55 % 0 lf 1017,2 hPa 0,0 l/m 2 min 0 min 877 W/m 23,0 km/h (4 Bft)
27.06.2015 16:18 25,1 C 24,4 C 57 % 0 lf 1017,2 hPa 0,0 l/m 2 min 0 min 824 W/m 27,2 km/h (4 Bft)
27.06.2015 16:20 25,2 C 25,0 C 56 % 0 lf 1017,3 hPa 0,0 l/m 2 min 0 min 826 W/m 20,9 km/h (4 Bft)
27.06.2015 16:22 25,3 C 24,4 C 54 % 0 lf 1017,3 hPa 0,0 l/m 2 min 0 min 820 W/m 39,7 km/h (6 Bft)
27.06.2015 16:24 25,2 C 23,9 C 53 % 0 lf 1017,4 hPa 0,0 l/m 2 min 0 min 371 W/m 27,2 km/h (4 Bft)
27.06.2015 16:26 25,1 C 22,8 C 53 % 0 lf 1017,3 hPa 0,0 l/m 0 min 0 min 257 W/m 27,2 km/h (4 Bft)
27.06.2015 16:28 24,9 C 22,8 C 54 % 0 lf 1017,4 hPa 0,0 l/m 0 min 0 min 244 W/m 25,1 km/h (4 Bft)
27.06.2015 16:30 24,8 C 22,8 C 54 % 0 lf 1017,4 hPa 0,0 l/m 0 min 0 min 244 W/m 31,4 km/h (5 Bft)
27.06.2015 16:32 24,7 C 22,8 C 53 % 0 lf 1017,4 hPa 0,0 l/m 2 min 0 min 653 W/m 25,1 km/h (4 Bft)
27.06.2015 16:34 24,6 C 23,3 C 54 % 0 lf 1017,4 hPa 0,0 l/m 2 min 0 min 768 W/m 25,1 km/h (4 Bft)
27.06.2015 16:36 24,6 C 23,3 C 54 % 0 lf 1017,3 hPa 0,0 l/m 2 min 0 min 745 W/m 25,1 km/h (4 Bft)
27.06.2015 16:38 24,7 C 23,3 C 53 % 0 lf 1017,4 hPa 0,0 l/m 2 min 0 min 743 W/m 41,8 km/h (6 Bft)
27.06.2015 16:39 24,7 C 23,3 C 51 % 0 lf 1017,4 hPa 0,0 l/m 1 min 0 min 742 W/m 35,6 km/h (5 Bft)
27.06.2015 16:42 24,7 C 23,3 C 51 % 0 lf 1017,5 hPa 0,0 l/m 2 min 0 min 725 W/m 25,1 km/h (4 Bft)
27.06.2015 16:44 24,8 C 23,3 C 50 % 0 lf 1017,5 hPa 0,0 l/m 2 min 0 min 714 W/m 31,4 km/h (5 Bft)
27.06.2015 16:46 24,8 C 23,3 C 51 % 0 lf 1017,4 hPa 0,0 l/m 2 min 0 min 713 W/m 29,3 km/h (5 Bft)
27.06.2015 16:48 24,9 C 23,3 C 51 % 0 lf 1017,4 hPa 0,0 l/m 2 min 0 min 714 W/m 31,4 km/h (5 Bft)
27.06.2015 16:50 24,9 C 23,3 C 50 % 0 lf 1017,4 hPa 0,0 l/m 2 min 0 min 728 W/m 23,0 km/h (4 Bft)
27.06.2015 16:51 25,0 C 23,3 C 51 % 0 lf 1017,4 hPa 0,0 l/m 1 min 0 min 729 W/m 14,6 km/h (3 Bft)
27.06.2015 16:52 25,0 C 23,3 C 50 % 0 lf 1017,4 hPa 0,0 l/m 1 min 0 min 716 W/m 29,3 km/h (5 Bft)
27.06.2015 16:54 25,0 C 23,3 C 49 % 0 lf 1017,5 hPa 0,0 l/m 2 min 0 min 710 W/m 20,9 km/h (4 Bft)
27.06.2015 16:56 25,1 C 23,3 C 51 % 0 lf 1017,4 hPa 0,0 l/m 2 min 0 min 701 W/m 23,0 km/h (4 Bft)
27.06.2015 16:57 25,1 C 23,3 C 51 % 0 lf 1017,4 hPa 0,0 l/m 1 min 0 min 698 W/m 20,9 km/h (4 Bft)
27.06.2015 17:00 25,1 C 23,3 C 51 % 0 lf 1017,5 hPa 0,0 l/m 2 min 0 min 699 W/m 16,7 km/h (3 Bft)
27.06.2015 17:02 25,1 C 23,3 C 51 % 0 lf 1017,5 hPa 0,0 l/m 2 min 0 min 696 W/m 29,3 km/h (5 Bft)
27.06.2015 17:04 25,1 C 23,3 C 50 % 0 lf 1017,6 hPa 0,0 l/m 2 min 0 min 692 W/m 25,1 km/h (4 Bft)
27.06.2015 17:06 25,1 C 23,3 C 50 % 0 lf 1017,5 hPa 0,0 l/m 2 min 0 min 689 W/m 27,2 km/h (4 Bft)
27.06.2015 17:07 25,1 C 23,3 C 49 % 0 lf 1017,6 hPa 0,0 l/m 1 min 0 min 682 W/m 37,7 km/h (5 Bft)
27.06.2015 17:08 25,1 C 22,8 C 51 % 0 lf 1017,6 hPa 0,0 l/m 1 min 0 min 663 W/m 23,0 km/h (4 Bft)
27.06.2015 17:09 25,1 C 23,3 C 52 % 0 lf 1017,7 hPa 0,0 l/m 1 min 0 min 671 W/m 20,9 km/h (4 Bft)
27.06.2015 17:10 25,1 C 23,3 C 51 % 0 lf 1017,7 hPa 0,0 l/m 1 min 0 min 650 W/m 25,1 km/h (4 Bft)
27.06.2015 17:12 25,1 C 23,3 C 50 % 0 lf 1017,7 hPa 0,0 l/m 2 min 0 min 649 W/m 18,8 km/h (3 Bft)
27.06.2015 17:14 25,1 C 22,8 C 49 % 0 lf 1017,7 hPa 0,0 l/m 2 min 0 min 648 W/m 25,1 km/h (4 Bft)
27.06.2015 17:16 25,1 C 22,8 C 48 % 0 lf 1017,6 hPa 0,0 l/m 2 min 0 min 638 W/m 25,1 km/h (4 Bft)
27.06.2015 17:18 25,1 C 22,8 C 49 % 0 lf 1017,7 hPa 0,0 l/m 2 min 0 min 628 W/m 29,3 km/h (5 Bft)
27.06.2015 17:20 25,1 C 22,8 C 48 % 0 lf 1017,7 hPa 0,0 l/m 2 min 0 min 634 W/m 29,3 km/h (5 Bft)
27.06.2015 17:22 25,1 C 22,2 C 49 % 0 lf 1017,8 hPa 0,0 l/m 2 min 0 min 623 W/m 29,3 km/h (5 Bft)
27.06.2015 17:24 25,1 C 22,2 C 49 % 0 lf 1017,9 hPa 0,0 l/m 2 min 0 min 625 W/m 27,2 km/h (4 Bft)
27.06.2015 17:26 25,0 C 22,2 C 50 % 0 lf 1017,8 hPa 0,0 l/m 2 min 0 min 628 W/m 27,2 km/h (4 Bft)
27.06.2015 17:28 24,9 C 22,8 C 50 % 0 lf 1017,8 hPa 0,0 l/m 2 min 0 min 624 W/m 27,2 km/h (4 Bft)
27.06.2015 17:30 24,9 C 22,2 C 50 % 0 lf 1017,9 hPa 0,0 l/m 2 min 0 min 627 W/m 27,2 km/h (4 Bft)
27.06.2015 17:32 24,9 C 22,2 C 49 % 0 lf 1018,0 hPa 0,0 l/m 2 min 0 min 618 W/m 27,2 km/h (4 Bft)
27.06.2015 17:34 24,8 C 22,2 C 49 % 0 lf 1017,9 hPa 0,0 l/m 2 min 0 min 615 W/m 27,2 km/h (4 Bft)
27.06.2015 17:36 24,8 C 22,8 C 50 % 0 lf 1017,9 hPa 0,0 l/m 2 min 0 min 610 W/m 18,8 km/h (3 Bft)
27.06.2015 17:38 24,9 C 22,8 C 50 % 0 lf 1017,9 hPa 0,0 l/m 2 min 0 min 615 W/m 18,8 km/h (3 Bft)
27.06.2015 17:40 24,9 C 22,8 C 49 % 0 lf 1018,0 hPa 0,0 l/m 2 min 0 min 637 W/m 29,3 km/h (5 Bft)
27.06.2015 17:42 24,9 C 22,8 C 50 % 0 lf 1018,1 hPa 0,0 l/m 2 min 0 min 627 W/m 35,6 km/h (5 Bft)
27.06.2015 17:44 24,8 C 22,2 C 49 % 0 lf 1018,0 hPa 0,0 l/m 2 min 0 min 604 W/m 29,3 km/h (5 Bft)
27.06.2015 17:46 24,8 C 22,2 C 49 % 0 lf 1018,0 hPa 0,0 l/m 2 min 0 min 608 W/m 27,2 km/h (4 Bft)
27.06.2015 17:48 24,7 C 22,2 C 49 % 0 lf 1018,0 hPa 0,0 l/m 2 min 0 min 616 W/m 18,8 km/h (3 Bft)
27.06.2015 17:50 24,6 C 21,7 C 50 % 0 lf 1018,3 hPa 0,0 l/m 2 min 0 min 617 W/m 31,4 km/h (5 Bft)
27.06.2015 17:52 24,5 C 21,7 C 49 % 0 lf 1018,2 hPa 0,0 l/m 2 min 0 min 573 W/m 18,8 km/h (3 Bft)
27.06.2015 17:54 24,4 C 21,7 C 51 % 0 lf 1018,3 hPa 0,0 l/m 2 min 0 min 308 W/m 39,7 km/h (6 Bft)
27.06.2015 17:56 24,3 C 21,7 C 51 % 0 lf 1018,2 hPa 0,0 l/m 2 min 0 min 580 W/m 25,1 km/h (4 Bft)
27.06.2015 17:58 24,2 C 21,1 C 51 % 0 lf 1018,3 hPa 0,0 l/m 0 min 0 min 128 W/m 20,9 km/h (4 Bft)
27.06.2015 18:00 24,1 C 21,1 C 51 % 0 lf 1018,3 hPa 0,0 l/m 2 min 0 min 477 W/m 20,9 km/h (4 Bft)
27.06.2015 18:02 24,0 C 21,1 C 51 % 0 lf 1018,3 hPa 0,0 l/m 2 min 0 min 528 W/m 23,0 km/h (4 Bft)
27.06.2015 18:05 23,9 C 21,1 C 51 % 0 lf 1018,3 hPa 0,0 l/m 2 min 0 min 520 W/m 23,0 km/h (4 Bft)
27.06.2015 18:10 23,6 C 20,6 C 50 % 0 lf 1018,5 hPa 0,0 l/m 2 min 0 min 515 W/m 29,3 km/h (5 Bft)
27.06.2015 18:14 23,4 C 20,6 C 52 % 0 lf 1018,5 hPa 0,0 l/m 2 min 0 min 481 W/m 29,3 km/h (5 Bft)
27.06.2015 18:16 23,3 C 20,6 C 52 % 0 lf 1018,6 hPa 0,0 l/m 2 min 0 min 481 W/m 29,3 km/h (5 Bft)
27.06.2015 18:18 23,2 C 20,6 C 51 % 0 lf 1018,6 hPa 0,0 l/m 2 min 0 min 473 W/m 27,2 km/h (4 Bft)
27.06.2015 18:20 23,2 C 20,6 C 52 % 0 lf 1018,5 hPa 0,0 l/m 2 min 0 min 446 W/m 25,1 km/h (4 Bft)
27.06.2015 18:22 23,1 C 20,6 C 52 % 0 lf 1018,5 hPa 0,0 l/m 0 min 0 min 79 W/m 20,9 km/h (4 Bft)
27.06.2015 18:24 23,0 C 20,6 C 52 % 0 lf 1018,6 hPa 0,0 l/m 0 min 0 min 77 W/m 20,9 km/h (4 Bft)
27.06.2015 18:26 22,9 C 20,0 C 52 % 0 lf 1018,5 hPa 0,0 l/m 0 min 0 min 89 W/m 20,9 km/h (4 Bft)
27.06.2015 18:28 22,8 C 20,0 C 53 % 0 lf 1018,6 hPa 0,0 l/m 0 min 0 min 167 W/m 16,7 km/h (3 Bft)
27.06.2015 18:30 22,7 C 20,0 C 53 % 0 lf 1018,6 hPa 0,0 l/m 0 min 0 min 167 W/m 23,0 km/h (4 Bft)
27.06.2015 18:32 22,7 C 20,0 C 54 % 0 lf 1018,6 hPa 0,0 l/m 0 min 0 min 94 W/m 18,8 km/h (3 Bft)
27.06.2015 18:34 22,6 C 19,4 C 55 % 0 lf 1018,7 hPa 0,0 l/m 0 min 0 min 74 W/m 18,8 km/h (3 Bft)
27.06.2015 18:36 22,5 C 19,4 C 55 % 0 lf 1018,7 hPa 0,0 l/m 0 min 0 min 80 W/m 25,1 km/h (4 Bft)
27.06.2015 18:38 22,4 C 19,4 C 55 % 0 lf 1018,8 hPa 0,0 l/m 0 min 0 min 112 W/m 16,7 km/h (3 Bft)
27.06.2015 18:40 22,3 C 19,4 C 55 % 0 lf 1018,7 hPa 0,0 l/m 2 min 0 min 418 W/m 20,9 km/h (4 Bft)
27.06.2015 18:42 22,3 C 19,4 C 55 % 0 lf 1018,8 hPa 0,0 l/m 2 min 0 min 422 W/m 16,7 km/h (3 Bft)
27.06.2015 18:43 22,2 C 20,0 C 56 % 0 lf 1018,9 hPa 0,0 l/m 1 min 0 min 406 W/m 20,9 km/h (4 Bft)
27.06.2015 18:44 22,2 C 20,0 C 55 % 0 lf 1018,8 hPa 0,0 l/m 1 min 0 min 406 W/m 14,6 km/h (3 Bft)
27.06.2015 18:46 22,2 C 20,0 C 55 % 0 lf 1018,8 hPa 0,0 l/m 2 min 0 min 234 W/m 23,0 km/h (4 Bft)
27.06.2015 18:48 22,1 C 20,0 C 55 % 0 lf 1018,9 hPa 0,0 l/m 0 min 0 min 110 W/m 25,1 km/h (4 Bft)
27.06.2015 18:50 22,1 C 19,4 C 55 % 0 lf 1018,9 hPa 0,0 l/m 2 min 0 min 381 W/m 25,1 km/h (4 Bft)
27.06.2015 18:52 22,0 C 19,4 C 55 % 0 lf 1018,8 hPa 0,0 l/m 2 min 0 min 380 W/m 20,9 km/h (4 Bft)
27.06.2015 18:54 21,9 C 20,0 C 55 % 0 lf 1018,8 hPa 0,0 l/m 2 min 0 min 371 W/m 18,8 km/h (3 Bft)
27.06.2015 18:56 21,9 C 19,4 C 55 % 0 lf 1018,9 hPa 0,0 l/m 2 min 0 min 376 W/m 16,7 km/h (3 Bft)
27.06.2015 18:58 21,9 C 20,0 C 55 % 0 lf 1018,8 hPa 0,0 l/m 2 min 0 min 369 W/m 18,8 km/h (3 Bft)
27.06.2015 19:00 21,9 C 20,0 C 55 % 0 lf 1018,7 hPa 0,0 l/m 2 min 0 min 364 W/m 18,8 km/h (3 Bft)
27.06.2015 19:02 21,9 C 20,0 C 55 % 0 lf 1018,7 hPa 0,0 l/m 2 min 0 min 358 W/m 18,8 km/h (3 Bft)
27.06.2015 19:04 21,9 C 20,0 C 56 % 0 lf 1018,8 hPa 0,0 l/m 2 min 0 min 350 W/m 18,8 km/h (3 Bft)
27.06.2015 19:06 21,8 C 19,4 C 56 % 0 lf 1018,7 hPa 0,0 l/m 2 min 0 min 340 W/m 29,3 km/h (5 Bft)
27.06.2015 19:08 21,8 C 19,4 C 54 % 0 lf 1018,8 hPa 0,0 l/m 2 min 0 min 336 W/m 23,0 km/h (4 Bft)
27.06.2015 19:10 21,8 C 20,0 C 54 % 0 lf 1018,8 hPa 0,0 l/m 2 min 0 min 330 W/m 18,8 km/h (3 Bft)
27.06.2015 19:12 21,8 C 20,0 C 54 % 0 lf 1018,8 hPa 0,0 l/m 2 min 0 min 324 W/m 10,5 km/h (2 Bft)
27.06.2015 19:14 21,8 C 19,4 C 55 % 0 lf 1018,8 hPa 0,0 l/m 2 min 0 min 318 W/m 16,7 km/h (3 Bft)
27.06.2015 19:16 21,8 C 20,0 C 54 % 0 lf 1018,8 hPa 0,0 l/m 2 min 0 min 316 W/m 27,2 km/h (4 Bft)
27.06.2015 19:18 21,8 C 20,0 C 55 % 0 lf 1018,8 hPa 0,0 l/m 2 min 0 min 313 W/m 18,8 km/h (3 Bft)
27.06.2015 19:20 21,8 C 20,0 C 54 % 0 lf 1018,8 hPa 0,0 l/m 2 min 0 min 308 W/m 25,1 km/h (4 Bft)
27.06.2015 19:22 21,8 C 20,0 C 53 % 0 lf 1018,8 hPa 0,0 l/m 2 min 0 min 302 W/m 16,7 km/h (3 Bft)
27.06.2015 19:24 21,8 C 20,0 C 53 % 0 lf 1018,8 hPa 0,0 l/m 2 min 0 min 296 W/m 20,9 km/h (4 Bft)
27.06.2015 19:26 21,8 C 20,0 C 54 % 0 lf 1018,8 hPa 0,0 l/m 2 min 0 min 291 W/m 16,7 km/h (3 Bft)
27.06.2015 19:28 21,7 C 19,4 C 54 % 0 lf 1018,8 hPa 0,0 l/m 2 min 0 min 286 W/m 20,9 km/h (4 Bft)
27.06.2015 19:30 21,7 C 19,4 C 53 % 0 lf 1018,8 hPa 0,0 l/m 2 min 0 min 281 W/m 27,2 km/h (4 Bft)
27.06.2015 19:32 21,7 C 19,4 C 54 % 0 lf 1018,8 hPa 0,0 l/m 2 min 0 min 276 W/m 29,3 km/h (5 Bft)
27.06.2015 19:34 21,7 C 19,4 C 54 % 0 lf 1018,9 hPa 0,0 l/m 2 min 0 min 270 W/m 20,9 km/h (4 Bft)
27.06.2015 19:36 21,7 C 19,4 C 54 % 0 lf 1018,9 hPa 0,0 l/m 2 min 0 min 262 W/m 16,7 km/h (3 Bft)
27.06.2015 19:38 21,7 C 19,4 C 55 % 0 lf 1018,9 hPa 0,0 l/m 2 min 0 min 254 W/m 20,9 km/h (4 Bft)
27.06.2015 19:40 21,6 C 19,4 C 54 % 0 lf 1018,9 hPa 0,0 l/m 2 min 0 min 246 W/m 23,0 km/h (4 Bft)
27.06.2015 19:42 21,6 C 19,4 C 54 % 0 lf 1019,0 hPa 0,0 l/m 2 min 0 min 241 W/m 25,1 km/h (4 Bft)
27.06.2015 19:44 21,6 C 19,4 C 54 % 0 lf 1018,9 hPa 0,0 l/m 2 min 0 min 235 W/m 16,7 km/h (3 Bft)
27.06.2015 19:46 21,6 C 19,4 C 54 % 0 lf 1019,0 hPa 0,0 l/m 2 min 0 min 229 W/m 27,2 km/h (4 Bft)
27.06.2015 19:48 21,5 C 19,4 C 54 % 0 lf 1019,0 hPa 0,0 l/m 2 min 0 min 224 W/m 20,9 km/h (4 Bft)
27.06.2015 19:50 21,5 C 19,4 C 54 % 0 lf 1019,0 hPa 0,0 l/m 2 min 0 min 219 W/m 16,7 km/h (3 Bft)
27.06.2015 19:52 21,4 C 19,4 C 54 % 0 lf 1019,0 hPa 0,0 l/m 2 min 0 min 213 W/m 23,0 km/h (4 Bft)
27.06.2015 19:54 21,4 C 19,4 C 54 % 0 lf 1019,1 hPa 0,0 l/m 2 min 0 min 208 W/m 16,7 km/h (3 Bft)
27.06.2015 19:56 21,4 C 19,4 C 54 % 0 lf 1019,1 hPa 0,0 l/m 2 min 0 min 204 W/m 25,1 km/h (4 Bft)
27.06.2015 19:58 21,4 C 19,4 C 53 % 0 lf 1019,0 hPa 0,0 l/m 2 min 0 min 197 W/m 18,8 km/h (3 Bft)
27.06.2015 20:00 21,3 C 19,4 C 53 % 0 lf 1019,1 hPa 0,0 l/m 2 min 0 min 190 W/m 18,8 km/h (3 Bft)
27.06.2015 20:02 21,3 C 19,4 C 53 % 0 lf 1019,1 hPa 0,0 l/m 2 min 0 min 181 W/m 14,6 km/h (3 Bft)
27.06.2015 20:04 21,3 C 18,9 C 54 % 0 lf 1019,1 hPa 0,0 l/m 2 min 0 min 175 W/m 12,6 km/h (3 Bft)
27.06.2015 20:06 21,3 C 18,9 C 55 % 0 lf 1019,1 hPa 0,0 l/m 2 min 0 min 171 W/m 14,6 km/h (3 Bft)
27.06.2015 20:08 21,2 C 18,9 C 54 % 0 lf 1019,1 hPa 0,0 l/m 2 min 0 min 163 W/m 20,9 km/h (4 Bft)
27.06.2015 20:10 21,2 C 18,9 C 54 % 0 lf 1019,1 hPa 0,0 l/m 2 min 0 min 157 W/m 16,7 km/h (3 Bft)
27.06.2015 20:12 21,2 C 18,9 C 54 % 0 lf 1019,1 hPa 0,0 l/m 2 min 0 min 149 W/m 18,8 km/h (3 Bft)
27.06.2015 20:14 21,2 C 18,9 C 54 % 0 lf 1019,1 hPa 0,0 l/m 2 min 0 min 144 W/m 14,6 km/h (3 Bft)
27.06.2015 20:16 21,1 C 18,9 C 54 % 0 lf 1019,1 hPa 0,0 l/m 2 min 0 min 138 W/m 16,7 km/h (3 Bft)
27.06.2015 20:18 21,1 C 18,3 C 55 % 0 lf 1019,2 hPa 0,0 l/m 2 min 0 min 134 W/m 14,6 km/h (3 Bft)
27.06.2015 20:20 21,1 C 18,3 C 55 % 0 lf 1019,3 hPa 0,0 l/m 2 min 0 min 128 W/m 12,6 km/h (3 Bft)
27.06.2015 20:22 21,1 C 18,3 C 56 % 0 lf 1019,3 hPa 0,0 l/m 2 min 0 min 122 W/m 16,7 km/h (3 Bft)
27.06.2015 20:24 21,0 C 18,3 C 56 % 0 lf 1019,3 hPa 0,0 l/m 2 min 0 min 119 W/m 16,7 km/h (3 Bft)
27.06.2015 20:26 21,0 C 18,3 C 56 % 0 lf 1019,3 hPa 0,0 l/m 2 min 0 min 114 W/m 14,6 km/h (3 Bft)
27.06.2015 20:28 20,9 C 18,3 C 57 % 0 lf 1019,3 hPa 0,0 l/m 2 min 0 min 110 W/m 16,7 km/h (3 Bft)
27.06.2015 20:30 20,9 C 18,3 C 57 % 0 lf 1019,5 hPa 0,0 l/m 2 min 0 min 104 W/m 14,6 km/h (3 Bft)
27.06.2015 20:32 20,9 C 18,3 C 57 % 0 lf 1019,5 hPa 0,0 l/m 2 min 0 min 99 W/m 8,4 km/h (2 Bft)
27.06.2015 20:34 20,8 C 18,3 C 58 % 0 lf 1019,6 hPa 0,0 l/m 2 min 0 min 94 W/m 12,6 km/h (3 Bft)
27.06.2015 20:36 20,8 C 18,3 C 58 % 0 lf 1019,6 hPa 0,0 l/m 2 min 0 min 90 W/m 14,6 km/h (3 Bft)
27.06.2015 20:38 20,7 C 17,8 C 58 % 0 lf 1019,6 hPa 0,0 l/m 2 min 0 min 86 W/m 12,6 km/h (3 Bft)
27.06.2015 20:40 20,7 C 17,8 C 59 % 0 lf 1019,7 hPa 0,0 l/m 2 min 0 min 80 W/m 14,6 km/h (3 Bft)
27.06.2015 20:42 20,7 C 17,8 C 58 % 0 lf 1019,6 hPa 0,0 l/m 2 min 0 min 76 W/m 14,6 km/h (3 Bft)
27.06.2015 20:44 20,6 C 17,8 C 58 % 0 lf 1019,7 hPa 0,0 l/m 2 min 0 min 74 W/m 16,7 km/h (3 Bft)
27.06.2015 20:46 20,6 C 17,8 C 58 % 0 lf 1019,7 hPa 0,0 l/m 2 min 0 min 70 W/m 14,6 km/h (3 Bft)
27.06.2015 20:48 20,5 C 17,8 C 58 % 0 lf 1019,6 hPa 0,0 l/m 2 min 0 min 65 W/m 12,6 km/h (3 Bft)
27.06.2015 20:50 20,4 C 17,8 C 59 % 0 lf 1019,7 hPa 0,0 l/m 2 min 0 min 62 W/m 14,6 km/h (3 Bft)
27.06.2015 20:52 20,4 C 17,8 C 58 % 0 lf 1019,7 hPa 0,0 l/m 0 min 0 min 59 W/m 10,5 km/h (2 Bft)
27.06.2015 20:54 20,4 C 17,8 C 59 % 0 lf 1019,7 hPa 0,0 l/m 0 min 0 min 55 W/m 10,5 km/h (2 Bft)
27.06.2015 20:56 20,3 C 17,2 C 59 % 0 lf 1019,8 hPa 0,0 l/m 0 min 0 min 52 W/m 6,3 km/h (2 Bft)
27.06.2015 20:58 20,3 C 17,2 C 59 % 0 lf 1019,9 hPa 0,0 l/m 0 min 0 min 47 W/m 14,6 km/h (3 Bft)
27.06.2015 21:00 20,2 C 17,2 C 59 % 0 lf 1019,9 hPa 0,0 l/m 0 min 0 min 46 W/m 10,5 km/h (2 Bft)
27.06.2015 21:02 20,2 C 17,2 C 60 % 0 lf 1019,9 hPa 0,0 l/m 0 min 0 min 43 W/m 12,6 km/h (3 Bft)
27.06.2015 21:04 20,2 C 17,2 C 60 % 0 lf 1020,0 hPa 0,0 l/m 0 min 0 min 40 W/m 12,6 km/h (3 Bft)
27.06.2015 21:06 20,1 C 17,2 C 60 % 0 lf 1020,0 hPa 0,0 l/m 0 min 0 min 37 W/m 12,6 km/h (3 Bft)
27.06.2015 21:08 20,1 C 17,2 C 60 % 0 lf 1020,0 hPa 0,0 l/m 0 min 0 min 34 W/m 12,6 km/h (3 Bft)
27.06.2015 21:10 20,0 C 17,2 C 60 % 0 lf 1020,1 hPa 0,0 l/m 0 min 0 min 32 W/m 10,5 km/h (2 Bft)
27.06.2015 21:12 19,9 C 16,7 C 60 % 0 lf 1020,1 hPa 0,0 l/m 0 min 0 min 31 W/m 8,4 km/h (2 Bft)
27.06.2015 21:14 19,9 C 16,7 C 61 % 0 lf 1020,1 hPa 0,0 l/m 0 min 0 min 28 W/m 12,6 km/h (3 Bft)
27.06.2015 21:16 19,9 C 16,7 C 61 % 0 lf 1020,1 hPa 0,0 l/m 0 min 0 min 26 W/m 10,5 km/h (2 Bft)
27.06.2015 21:18 19,8 C 16,7 C 61 % 0 lf 1020,1 hPa 0,0 l/m 0 min 0 min 25 W/m 14,6 km/h (3 Bft)
27.06.2015 21:20 19,8 C 16,7 C 61 % 0 lf 1020,1 hPa 0,0 l/m 0 min 0 min 24 W/m 8,4 km/h (2 Bft)
27.06.2015 21:22 19,7 C 16,7 C 62 % 0 lf 1020,1 hPa 0,0 l/m 0 min 0 min 23 W/m 8,4 km/h (2 Bft)
27.06.2015 21:24 19,7 C 16,7 C 62 % 0 lf 1020,1 hPa 0,0 l/m 0 min 0 min 22 W/m 6,3 km/h (2 Bft)
27.06.2015 21:26 19,7 C 16,1 C 62 % 0 lf 1020,1 hPa 0,0 l/m 0 min 0 min 21 W/m 6,3 km/h (2 Bft)
27.06.2015 21:28 19,6 C 16,1 C 62 % 0 lf 1020,1 hPa 0,0 l/m 0 min 0 min 19 W/m 8,4 km/h (2 Bft)
27.06.2015 21:30 19,6 C 16,1 C 62 % 0 lf 1020,1 hPa 0,0 l/m 2 min 0 min 19 W/m 4,2 km/h (1 Bft)
27.06.2015 21:32 19,5 C 16,1 C 62 % 0 lf 1020,1 hPa 0,0 l/m 0 min 0 min 18 W/m 6,3 km/h (2 Bft)
27.06.2015 21:34 19,4 C 15,6 C 63 % 0 lf 1020,2 hPa 0,0 l/m 0 min 0 min 16 W/m 8,4 km/h (2 Bft)
27.06.2015 21:36 19,4 C 15,6 C 63 % 0 lf 1020,2 hPa 0,0 l/m 0 min 0 min 14 W/m 4,2 km/h (1 Bft)
27.06.2015 21:38 19,3 C 15,6 C 63 % 0 lf 1020,1 hPa 0,0 l/m 0 min 0 min 14 W/m 8,4 km/h (2 Bft)
27.06.2015 21:40 19,3 C 15,6 C 63 % 0 lf 1020,2 hPa 0,0 l/m 0 min 0 min 13 W/m 6,3 km/h (2 Bft)
27.06.2015 21:42 19,2 C 15,6 C 63 % 0 lf 1020,1 hPa 0,0 l/m 0 min 0 min 12 W/m 8,4 km/h (2 Bft)
27.06.2015 21:44 19,2 C 15,6 C 63 % 0 lf 1020,2 hPa 0,0 l/m 0 min 0 min 12 W/m 6,3 km/h (2 Bft)
27.06.2015 21:46 19,2 C 15,0 C 64 % 0 lf 1020,2 hPa 0,0 l/m 0 min 0 min 11 W/m 6,3 km/h (2 Bft)
27.06.2015 21:48 19,1 C 15,0 C 64 % 0 lf 1020,2 hPa 0,0 l/m 0 min 0 min 10 W/m 6,3 km/h (2 Bft)
27.06.2015 21:50 19,0 C 15,0 C 64 % 0 lf 1020,2 hPa 0,0 l/m 0 min 0 min 9 W/m 4,2 km/h (1 Bft)
27.06.2015 21:52 18,9 C 15,0 C 64 % 0 lf 1020,2 hPa 0,0 l/m 0 min 0 min 9 W/m 6,3 km/h (2 Bft)
27.06.2015 21:54 18,9 C 15,0 C 64 % 0 lf 1020,2 hPa 0,0 l/m 0 min 0 min 7 W/m 6,3 km/h (2 Bft)
27.06.2015 21:56 18,8 C 15,0 C 65 % 0 lf 1020,3 hPa 0,0 l/m 0 min 0 min 7 W/m 6,3 km/h (2 Bft)
27.06.2015 21:58 18,7 C 14,4 C 65 % 0 lf 1020,3 hPa 0,0 l/m 0 min 0 min 7 W/m 2,1 km/h (1 Bft)
27.06.2015 22:00 18,6 C 14,4 C 65 % 0 lf 1020,4 hPa 0,0 l/m 0 min 0 min 7 W/m 2,1 km/h (1 Bft)
27.06.2015 22:02 18,6 C 14,4 C 65 % 0 lf 1020,4 hPa 0,0 l/m 0 min 0 min 5 W/m 4,2 km/h (1 Bft)
27.06.2015 22:04 18,4 C 14,4 C 65 % 0 lf 1020,5 hPa 0,0 l/m 0 min 0 min 5 W/m 6,3 km/h (2 Bft)
27.06.2015 22:06 18,4 C 14,4 C 66 % 0 lf 1020,5 hPa 0,0 l/m 0 min 0 min 5 W/m 4,2 km/h (1 Bft)
27.06.2015 22:08 18,3 C 14,4 C 66 % 0 lf 1020,6 hPa 0,0 l/m 0 min 0 min 5 W/m 2,1 km/h (1 Bft)
27.06.2015 22:10 18,2 C 14,4 C 66 % 0 lf 1020,6 hPa 0,0 l/m 0 min 0 min 2 W/m 6,3 km/h (2 Bft)
27.06.2015 22:12 18,2 C 13,9 C 67 % 0 lf 1020,7 hPa 0,0 l/m 0 min 0 min 0 W/m 6,3 km/h (2 Bft)
27.06.2015 22:14 18,1 C 13,9 C 67 % 0 lf 1020,7 hPa 0,0 l/m 0 min 0 min 0 W/m 4,2 km/h (1 Bft)
27.06.2015 22:16 18,1 C 13,9 C 67 % 0 lf 1020,7 hPa 0,0 l/m 0 min 0 min 0 W/m 4,2 km/h (1 Bft)
27.06.2015 22:18 18,0 C 13,9 C 67 % 0 lf 1020,7 hPa 0,0 l/m 0 min 0 min 0 W/m 4,2 km/h (1 Bft)
27.06.2015 22:20 17,9 C 13,9 C 67 % 0 lf 1020,7 hPa 0,0 l/m 0 min 0 min 0 W/m 6,3 km/h (2 Bft)
27.06.2015 22:22 17,8 C 13,9 C 67 % 0 lf 1020,7 hPa 0,0 l/m 0 min 0 min 0 W/m 4,2 km/h (1 Bft)
27.06.2015 22:24 17,8 C 13,9 C 67 % 0 lf 1020,7 hPa 0,0 l/m 0 min 0 min 0 W/m 4,2 km/h (1 Bft)
27.06.2015 22:26 17,7 C 13,9 C 67 % 0 lf 1020,7 hPa 0,0 l/m 0 min 0 min 0 W/m 2,1 km/h (1 Bft)
27.06.2015 22:28 17,6 C 13,9 C 68 % 0 lf 1020,7 hPa 0,0 l/m 0 min 0 min 0 W/m 2,1 km/h (1 Bft)
27.06.2015 22:30 17,6 C 13,9 C 68 % 0 lf 1020,7 hPa 0,0 l/m 0 min 0 min 0 W/m 2,1 km/h (1 Bft)
27.06.2015 22:32 17,4 C 13,3 C 68 % 0 lf 1020,7 hPa 0,0 l/m 0 min 0 min 0 W/m 2,1 km/h (1 Bft)
27.06.2015 22:34 17,4 C 13,3 C 69 % 0 lf 1020,7 hPa 0,0 l/m 0 min 0 min 0 W/m 4,2 km/h (1 Bft)
27.06.2015 22:36 17,3 C 13,3 C 69 % 0 lf 1020,7 hPa 0,0 l/m 0 min 0 min 0 W/m 2,1 km/h (1 Bft)
27.06.2015 22:38 17,3 C 13,3 C 69 % 0 lf 1020,6 hPa 0,0 l/m 0 min 0 min 0 W/m 2,1 km/h (1 Bft)
27.06.2015 22:40 17,2 C 13,3 C 69 % 0 lf 1020,7 hPa 0,0 l/m 0 min 0 min 0 W/m 2,1 km/h (1 Bft)
27.06.2015 22:42 17,1 C 13,3 C 69 % 0 lf 1020,7 hPa 0,0 l/m 0 min 0 min 0 W/m 2,1 km/h (1 Bft)
27.06.2015 22:44 17,1 C 13,3 C 69 % 0 lf 1020,7 hPa 0,0 l/m 0 min 0 min 0 W/m 2,1 km/h (1 Bft)
27.06.2015 22:46 17,0 C 13,3 C 69 % 0 lf 1020,7 hPa 0,0 l/m 0 min 0 min 0 W/m 2,1 km/h (1 Bft)
27.06.2015 22:48 16,9 C 13,3 C 70 % 0 lf 1020,8 hPa 0,0 l/m 0 min 0 min 0 W/m 2,1 km/h (1 Bft)
27.06.2015 22:50 16,9 C 13,3 C 70 % 0 lf 1020,8 hPa 0,0 l/m 0 min 0 min 0 W/m 2,1 km/h (1 Bft)
27.06.2015 22:52 16,8 C 13,3 C 70 % 0 lf 1020,7 hPa 0,0 l/m 0 min 0 min 0 W/m 0,0 km/h (0 Bft)
27.06.2015 22:54 16,8 C 13,3 C 70 % 0 lf 1020,7 hPa 0,0 l/m 0 min 0 min 0 W/m 2,1 km/h (1 Bft)
27.06.2015 22:56 16,7 C 13,3 C 70 % 0 lf 1020,8 hPa 0,0 l/m 0 min 0 min 0 W/m 2,1 km/h (1 Bft)
27.06.2015 22:58 16,6 C 12,8 C 71 % 0 lf 1020,8 hPa 0,0 l/m 0 min 0 min 0 W/m 0,0 km/h (0 Bft)
27.06.2015 23:00 16,6 C 12,8 C 71 % 0 lf 1020,8 hPa 0,0 l/m 0 min 0 min 0 W/m 2,1 km/h (1 Bft)
27.06.2015 23:02 16,5 C 12,8 C 71 % 0 lf 1020,9 hPa 0,0 l/m 0 min 0 min 0 W/m 2,1 km/h (1 Bft)
27.06.2015 23:04 16,4 C 12,8 C 71 % 0 lf 1020,9 hPa 0,0 l/m 0 min 0 min 0 W/m 2,1 km/h (1 Bft)
27.06.2015 23:06 16,4 C 12,8 C 71 % 0 lf 1020,9 hPa 0,0 l/m 0 min 0 min 0 W/m 4,2 km/h (1 Bft)
27.06.2015 23:08 16,3 C 12,8 C 72 % 0 lf 1020,9 hPa 0,0 l/m 0 min 0 min 0 W/m 4,2 km/h (1 Bft)
27.06.2015 23:10 16,3 C 12,8 C 72 % 0 lf 1021,0 hPa 0,0 l/m 0 min 0 min 0 W/m 2,1 km/h (1 Bft)
27.06.2015 23:12 16,2 C 12,8 C 72 % 0 lf 1021,0 hPa 0,0 l/m 0 min 0 min 0 W/m 2,1 km/h (1 Bft)
27.06.2015 23:14 16,2 C 12,8 C 72 % 0 lf 1021,0 hPa 0,0 l/m 0 min 0 min 0 W/m 4,2 km/h (1 Bft)
27.06.2015 23:16 16,1 C 12,8 C 72 % 0 lf 1021,0 hPa 0,0 l/m 0 min 0 min 0 W/m 4,2 km/h (1 Bft)
27.06.2015 23:18 16,1 C 12,8 C 73 % 0 lf 1021,0 hPa 0,0 l/m 0 min 0 min 0 W/m 2,1 km/h (1 Bft)
27.06.2015 23:20 16,0 C 12,8 C 73 % 0 lf 1021,0 hPa 0,0 l/m 0 min 0 min 0 W/m 4,2 km/h (1 Bft)
27.06.2015 23:22 15,9 C 12,8 C 73 % 0 lf 1021,0 hPa 0,0 l/m 0 min 0 min 0 W/m 4,2 km/h (1 Bft)
27.06.2015 23:24 15,9 C 12,8 C 73 % 0 lf 1021,0 hPa 0,0 l/m 0 min 0 min 0 W/m 4,2 km/h (1 Bft)
27.06.2015 23:26 15,9 C 12,8 C 73 % 0 lf 1021,1 hPa 0,0 l/m 0 min 0 min 0 W/m 4,2 km/h (1 Bft)
27.06.2015 23:28 15,8 C 12,8 C 74 % 0 lf 1021,0 hPa 0,0 l/m 0 min 0 min 0 W/m 4,2 km/h (1 Bft)
27.06.2015 23:30 15,8 C 12,8 C 74 % 0 lf 1021,1 hPa 0,0 l/m 0 min 0 min 0 W/m 4,2 km/h (1 Bft)
27.06.2015 23:32 15,7 C 12,8 C 74 % 0 lf 1021,2 hPa 0,0 l/m 0 min 0 min 0 W/m 6,3 km/h (2 Bft)
27.06.2015 23:34 15,7 C 12,8 C 74 % 0 lf 1021,2 hPa 0,0 l/m 0 min 0 min 0 W/m 4,2 km/h (1 Bft)
27.06.2015 23:36 15,7 C 12,2 C 74 % 0 lf 1021,1 hPa 0,0 l/m 0 min 0 min 0 W/m 2,1 km/h (1 Bft)
27.06.2015 23:38 15,6 C 12,2 C 74 % 0 lf 1021,1 hPa 0,0 l/m 0 min 0 min 0 W/m 2,1 km/h (1 Bft)
27.06.2015 23:40 15,6 C 12,2 C 74 % 0 lf 1021,1 hPa 0,0 l/m 0 min 0 min 0 W/m 2,1 km/h (1 Bft)
27.06.2015 23:42 15,5 C 12,2 C 74 % 0 lf 1021,1 hPa 0,0 l/m 0 min 0 min 0 W/m 2,1 km/h (1 Bft)
27.06.2015 23:44 15,4 C 12,2 C 74 % 0 lf 1021,1 hPa 0,0 l/m 0 min 0 min 0 W/m 2,1 km/h (1 Bft)
27.06.2015 23:46 15,4 C 12,2 C 74 % 0 lf 1021,1 hPa 0,0 l/m 0 min 0 min 0 W/m 0,0 km/h (0 Bft)
27.06.2015 23:48 15,4 C 12,2 C 75 % 0 lf 1021,0 hPa 0,0 l/m 0 min 0 min 0 W/m 2,1 km/h (1 Bft)
27.06.2015 23:50 15,3 C 12,2 C 75 % 0 lf 1021,1 hPa 0,0 l/m 0 min 0 min 0 W/m 2,1 km/h (1 Bft)
27.06.2015 23:52 15,3 C 12,2 C 75 % 0 lf 1021,1 hPa 0,0 l/m 0 min 0 min 0 W/m 2,1 km/h (1 Bft)
27.06.2015 23:54 15,2 C 12,2 C 75 % 0 lf 1021,1 hPa 0,0 l/m 0 min 0 min 0 W/m 2,1 km/h (1 Bft)
27.06.2015 23:56 15,2 C 12,2 C 75 % 0 lf 1021,1 hPa 0,0 l/m 0 min 0 min 0 W/m 2,1 km/h (1 Bft)
27.06.2015 23:58 15,2 C 12,2 C 75 % 0 lf 1021,1 hPa 0,0 l/m 0 min 0 min 0 W/m 2,1 km/h (1 Bft)
_ Min-Zeit 23:54 23:36 17:16 00:00 05:14 - - - - 22:52
Minimum _ 15,2 C 12,2 C 48 % 0 lf 1013,3 hPa - - - - 0,0 km/h (0 Bft)
_ Max-Zeit 16:22 15:56 05:36 02:02 23:32 03:14 07:02 00:05 14:02 16:04
Maximum _ 25,3 C 28,3 C 95 % 15 lf 1021,2 hPa 0,8 l/m 2 min 2 min 1143 W/m 41,8 km/h
W (6 Bft)
Durchschnitt _ 20,4 C 18,3 C 74 % 4 lf 1016,4 hPa #4,6 l/m #8:21 h #2:22 h 331 W/m 15,0 km/h (3 Bft)
© 2015 W. Hausmann